Wetterdaten: Sonntag, 10.03.2013
Datum Zeit Temp. Aussen +5cm Feuchte Auss Luftdruck Regen Sonnenschein Regendauer UV Solar Windben
10.03.2013 00:00 5,7 C 4,6 C 97 % 999,6 hPa 0,0 l/m 0 min 0 min 0,0 UV-I 0 W/m 10,3 km/h (2 Bft)
10.03.2013 00:02 5,7 C 4,6 C 97 % 999,6 hPa 0,0 l/m 0 min 0 min 0,0 UV-I 0 W/m 10,3 km/h (2 Bft)
10.03.2013 00:06 5,7 C 4,6 C 97 % 999,5 hPa 0,0 l/m 0 min 0 min 0,0 UV-I 0 W/m 7,7 km/h (2 Bft)
10.03.2013 00:08 5,7 C 4,6 C 97 % 999,6 hPa 0,0 l/m 0 min 0 min 0,0 UV-I 0 W/m 15,4 km/h (3 Bft)
10.03.2013 00:10 5,7 C 4,6 C 97 % 999,6 hPa 0,0 l/m 0 min 0 min 0,0 UV-I 0 W/m 12,9 km/h (3 Bft)
10.03.2013 00:12 5,7 C 4,6 C 97 % 999,5 hPa 0,0 l/m 0 min 0 min 0,0 UV-I 0 W/m 5,1 km/h (1 Bft)
10.03.2013 00:14 5,7 C 4,6 C 97 % 999,6 hPa 0,0 l/m 0 min 0 min 0,0 UV-I 0 W/m 7,7 km/h (2 Bft)
10.03.2013 00:16 5,7 C 4,6 C 97 % 999,6 hPa 0,0 l/m 0 min 0 min 0,0 UV-I 0 W/m 12,9 km/h (3 Bft)
10.03.2013 00:18 5,7 C 4,6 C 97 % 999,5 hPa 0,0 l/m 0 min 0 min 0,0 UV-I 0 W/m 5,1 km/h (1 Bft)
10.03.2013 00:20 5,7 C 4,6 C 97 % 999,5 hPa 0,0 l/m 0 min 0 min 0,0 UV-I 0 W/m 12,9 km/h (3 Bft)
10.03.2013 00:22 5,7 C 4,6 C 97 % 999,5 hPa 0,0 l/m 0 min 0 min 0,0 UV-I 0 W/m 7,7 km/h (2 Bft)
10.03.2013 00:24 5,6 C 4,6 C 97 % 999,5 hPa 0,0 l/m 0 min 0 min 0,0 UV-I 0 W/m 12,9 km/h (3 Bft)
10.03.2013 00:26 5,6 C 4,6 C 97 % 999,5 hPa 0,0 l/m 0 min 0 min 0,0 UV-I 0 W/m 12,9 km/h (3 Bft)
10.03.2013 00:28 5,6 C 4,6 C 97 % 999,5 hPa 0,0 l/m 0 min 0 min 0,0 UV-I 0 W/m 7,7 km/h (2 Bft)
10.03.2013 00:30 5,6 C 4,6 C 97 % 999,5 hPa 0,0 l/m 0 min 0 min 0,0 UV-I 0 W/m 7,7 km/h (2 Bft)
10.03.2013 00:32 5,6 C 4,6 C 97 % 999,5 hPa 0,0 l/m 0 min 0 min 0,0 UV-I 0 W/m 12,9 km/h (3 Bft)
10.03.2013 00:34 5,6 C 4,6 C 97 % 999,5 hPa 0,0 l/m 0 min 0 min 0,0 UV-I 0 W/m 5,1 km/h (1 Bft)
10.03.2013 00:36 5,6 C 4,6 C 97 % 999,5 hPa 0,0 l/m 0 min 0 min 0,0 UV-I 0 W/m 0,0 km/h (0 Bft)
10.03.2013 00:38 5,6 C 4,6 C 97 % 999,5 hPa 0,0 l/m 0 min 0 min 0,0 UV-I 0 W/m 5,1 km/h (1 Bft)
10.03.2013 00:40 5,6 C 4,6 C 97 % 999,5 hPa 0,0 l/m 0 min 0 min 0,0 UV-I 0 W/m 0,0 km/h (0 Bft)
10.03.2013 00:42 5,6 C 4,6 C 97 % 999,6 hPa 0,0 l/m 0 min 0 min 0,0 UV-I 0 W/m 5,1 km/h (1 Bft)
10.03.2013 00:44 5,5 C 4,0 C 97 % 999,6 hPa 0,0 l/m 0 min 0 min 0,0 UV-I 0 W/m 10,3 km/h (2 Bft)
10.03.2013 00:46 5,5 C 4,0 C 97 % 999,6 hPa 0,0 l/m 0 min 0 min 0,0 UV-I 0 W/m 12,9 km/h (3 Bft)
10.03.2013 00:48 5,4 C 4,0 C 97 % 999,6 hPa 0,0 l/m 0 min 0 min 0,0 UV-I 0 W/m 20,6 km/h (4 Bft)
10.03.2013 00:50 5,4 C 4,0 C 97 % 999,7 hPa 0,0 l/m 0 min 0 min 0,0 UV-I 0 W/m 2,6 km/h (1 Bft)
10.03.2013 00:52 5,4 C 4,0 C 97 % 999,7 hPa 0,0 l/m 0 min 0 min 0,0 UV-I 0 W/m 15,4 km/h (3 Bft)
10.03.2013 00:54 5,4 C 4,0 C 97 % 999,7 hPa 0,0 l/m 0 min 0 min 0,0 UV-I 0 W/m 7,7 km/h (2 Bft)
10.03.2013 00:56 5,3 C 4,0 C 97 % 999,7 hPa 0,0 l/m 0 min 0 min 0,0 UV-I 0 W/m 2,6 km/h (1 Bft)
10.03.2013 00:58 5,3 C 4,0 C 97 % 999,7 hPa 0,0 l/m 0 min 0 min 0,0 UV-I 0 W/m 7,7 km/h (2 Bft)
10.03.2013 01:00 5,3 C 4,0 C 98 % 999,7 hPa 0,0 l/m 0 min 0 min 0,0 UV-I 0 W/m 5,1 km/h (1 Bft)
10.03.2013 01:02 5,3 C 4,0 C 98 % 999,7 hPa 0,0 l/m 0 min 0 min 0,0 UV-I 0 W/m 7,7 km/h (2 Bft)
10.03.2013 01:04 5,2 C 4,0 C 98 % 999,7 hPa 0,0 l/m 0 min 0 min 0,0 UV-I 0 W/m 7,7 km/h (2 Bft)
10.03.2013 01:06 5,2 C 4,0 C 98 % 999,7 hPa 0,0 l/m 0 min 0 min 0,0 UV-I 0 W/m 7,7 km/h (2 Bft)
10.03.2013 01:08 5,2 C 4,0 C 98 % 999,7 hPa 0,0 l/m 0 min 0 min 0,0 UV-I 0 W/m 7,7 km/h (2 Bft)
10.03.2013 01:10 5,2 C 4,0 C 97 % 999,8 hPa 0,0 l/m 0 min 0 min 0,0 UV-I 0 W/m 2,6 km/h (1 Bft)
10.03.2013 01:12 5,1 C 4,0 C 97 % 999,7 hPa 0,0 l/m 0 min 0 min 0,0 UV-I 0 W/m 10,3 km/h (2 Bft)
10.03.2013 01:14 5,1 C 3,4 C 97 % 999,8 hPa 0,0 l/m 0 min 0 min 0,0 UV-I 0 W/m 10,3 km/h (2 Bft)
10.03.2013 01:16 5,0 C 3,4 C 97 % 999,8 hPa 0,0 l/m 0 min 0 min 0,0 UV-I 0 W/m 7,7 km/h (2 Bft)
10.03.2013 01:18 4,9 C 3,4 C 97 % 999,8 hPa 0,0 l/m 0 min 0 min 0,0 UV-I 0 W/m 7,7 km/h (2 Bft)
10.03.2013 01:20 4,9 C 3,4 C 97 % 999,8 hPa 0,0 l/m 0 min 0 min 0,0 UV-I 0 W/m 7,7 km/h (2 Bft)
10.03.2013 01:22 4,9 C 3,4 C 97 % 999,8 hPa 0,0 l/m 0 min 0 min 0,0 UV-I 0 W/m 0,0 km/h (0 Bft)
10.03.2013 01:24 4,8 C 3,4 C 98 % 999,7 hPa 0,0 l/m 0 min 0 min 0,0 UV-I 0 W/m 0,0 km/h (0 Bft)
10.03.2013 01:26 4,8 C 3,4 C 98 % 999,7 hPa 0,0 l/m 0 min 0 min 0,0 UV-I 0 W/m 5,1 km/h (1 Bft)
10.03.2013 01:28 4,8 C 3,4 C 97 % 999,7 hPa 0,0 l/m 0 min 0 min 0,0 UV-I 0 W/m 7,7 km/h (2 Bft)
10.03.2013 01:30 4,8 C 3,4 C 97 % 999,8 hPa 0,0 l/m 0 min 0 min 0,0 UV-I 0 W/m 5,1 km/h (1 Bft)
10.03.2013 01:32 4,7 C 3,4 C 97 % 999,7 hPa 0,0 l/m 0 min 0 min 0,0 UV-I 0 W/m 2,6 km/h (1 Bft)
10.03.2013 01:34 4,7 C 3,4 C 98 % 999,8 hPa 0,0 l/m 0 min 0 min 0,0 UV-I 0 W/m 5,1 km/h (1 Bft)
10.03.2013 01:36 4,7 C 3,4 C 98 % 999,8 hPa 0,0 l/m 0 min 0 min 0,0 UV-I 0 W/m 12,9 km/h (3 Bft)
10.03.2013 01:38 4,7 C 3,4 C 98 % 999,8 hPa 0,0 l/m 0 min 0 min 0,0 UV-I 0 W/m 12,9 km/h (3 Bft)
10.03.2013 01:40 4,6 C 3,4 C 98 % 999,8 hPa 0,0 l/m 0 min 0 min 0,0 UV-I 0 W/m 0,0 km/h (0 Bft)
10.03.2013 01:42 4,6 C 3,4 C 98 % 999,8 hPa 0,0 l/m 0 min 0 min 0,0 UV-I 0 W/m 0,0 km/h (0 Bft)
10.03.2013 01:44 4,6 C 3,4 C 98 % 999,8 hPa 0,0 l/m 0 min 0 min 0,0 UV-I 0 W/m 10,3 km/h (2 Bft)
10.03.2013 01:46 4,6 C 3,4 C 98 % 999,8 hPa 0,0 l/m 0 min 0 min 0,0 UV-I 0 W/m 10,3 km/h (2 Bft)
10.03.2013 01:48 4,5 C 3,4 C 98 % 999,8 hPa 0,0 l/m 0 min 0 min 0,0 UV-I 0 W/m 0,0 km/h (0 Bft)
10.03.2013 01:50 4,5 C 3,4 C 98 % 999,8 hPa 0,0 l/m 0 min 0 min 0,0 UV-I 0 W/m 5,1 km/h (1 Bft)
10.03.2013 01:52 4,5 C 3,4 C 98 % 999,8 hPa 0,0 l/m 0 min 0 min 0,0 UV-I 0 W/m 0,0 km/h (0 Bft)
10.03.2013 01:54 4,5 C 3,4 C 98 % 999,8 hPa 0,0 l/m 0 min 0 min 0,0 UV-I 0 W/m 2,6 km/h (1 Bft)
10.03.2013 01:56 4,5 C 3,4 C 98 % 999,8 hPa 0,0 l/m 0 min 0 min 0,0 UV-I 0 W/m 7,7 km/h (2 Bft)
10.03.2013 01:58 4,4 C 3,4 C 98 % 999,8 hPa 0,0 l/m 0 min 0 min 0,0 UV-I 0 W/m 10,3 km/h (2 Bft)
10.03.2013 02:00 4,4 C 3,4 C 98 % 999,8 hPa 0,0 l/m 0 min 0 min 0,0 UV-I 0 W/m 2,6 km/h (1 Bft)
10.03.2013 02:02 4,4 C 3,4 C 98 % 999,7 hPa 0,0 l/m 0 min 0 min 0,0 UV-I 0 W/m 2,6 km/h (1 Bft)
10.03.2013 02:04 4,4 C 3,4 C 98 % 999,8 hPa 0,0 l/m 0 min 0 min 0,0 UV-I 0 W/m 10,3 km/h (2 Bft)
10.03.2013 02:06 4,4 C 3,4 C 98 % 999,8 hPa 0,0 l/m 0 min 0 min 0,0 UV-I 0 W/m 12,9 km/h (3 Bft)
10.03.2013 02:08 4,4 C 3,4 C 98 % 999,8 hPa 0,0 l/m 0 min 0 min 0,0 UV-I 0 W/m 10,3 km/h (2 Bft)
10.03.2013 02:10 4,4 C 3,4 C 98 % 999,7 hPa 0,0 l/m 0 min 0 min 0,0 UV-I 0 W/m 2,6 km/h (1 Bft)
10.03.2013 02:12 4,4 C 3,4 C 98 % 999,8 hPa 0,0 l/m 0 min 0 min 0,0 UV-I 0 W/m 0,0 km/h (0 Bft)
10.03.2013 02:14 4,4 C 3,4 C 98 % 999,8 hPa 0,0 l/m 0 min 0 min 0,0 UV-I 0 W/m 0,0 km/h (0 Bft)
10.03.2013 02:16 4,4 C 3,4 C 98 % 999,8 hPa 0,0 l/m 0 min 0 min 0,0 UV-I 0 W/m 7,7 km/h (2 Bft)
10.03.2013 02:18 4,4 C 3,4 C 98 % 999,8 hPa 0,0 l/m 0 min 0 min 0,0 UV-I 0 W/m 0,0 km/h (0 Bft)
10.03.2013 02:20 4,4 C 3,4 C 98 % 999,7 hPa 0,0 l/m 0 min 0 min 0,0 UV-I 0 W/m 0,0 km/h (0 Bft)
10.03.2013 02:22 4,4 C 3,4 C 98 % 999,8 hPa 0,0 l/m 0 min 0 min 0,0 UV-I 0 W/m 10,3 km/h (2 Bft)
10.03.2013 02:24 4,4 C 3,4 C 98 % 999,7 hPa 0,0 l/m 0 min 0 min 0,0 UV-I 0 W/m 7,7 km/h (2 Bft)
10.03.2013 02:26 4,3 C 3,4 C 98 % 999,7 hPa 0,0 l/m 0 min 0 min 0,0 UV-I 0 W/m 7,7 km/h (2 Bft)
10.03.2013 02:28 4,4 C 3,4 C 98 % 999,7 hPa 0,0 l/m 0 min 0 min 0,0 UV-I 0 W/m 5,1 km/h (1 Bft)
10.03.2013 02:30 4,3 C 3,4 C 98 % 999,7 hPa 0,0 l/m 0 min 0 min 0,0 UV-I 0 W/m 2,6 km/h (1 Bft)
10.03.2013 02:32 4,3 C 3,4 C 98 % 999,7 hPa 0,0 l/m 0 min 0 min 0,0 UV-I 0 W/m 2,6 km/h (1 Bft)
10.03.2013 02:34 4,3 C 3,4 C 98 % 999,6 hPa 0,0 l/m 0 min 0 min 0,0 UV-I 0 W/m 7,7 km/h (2 Bft)
10.03.2013 02:36 4,3 C 3,4 C 98 % 999,6 hPa 0,0 l/m 0 min 0 min 0,0 UV-I 0 W/m 15,4 km/h (3 Bft)
10.03.2013 02:38 4,3 C 3,4 C 98 % 999,6 hPa 0,0 l/m 0 min 0 min 0,0 UV-I 0 W/m 5,1 km/h (1 Bft)
10.03.2013 02:40 4,3 C 3,4 C 98 % 999,6 hPa 0,0 l/m 0 min 0 min 0,0 UV-I 0 W/m 7,7 km/h (2 Bft)
10.03.2013 02:42 4,3 C 3,4 C 98 % 999,5 hPa 0,0 l/m 0 min 0 min 0,0 UV-I 0 W/m 5,1 km/h (1 Bft)
10.03.2013 02:44 4,3 C 3,4 C 98 % 999,5 hPa 0,0 l/m 0 min 0 min 0,0 UV-I 0 W/m 10,3 km/h (2 Bft)
10.03.2013 02:46 4,3 C 3,4 C 98 % 999,6 hPa 0,0 l/m 0 min 0 min 0,0 UV-I 0 W/m 10,3 km/h (2 Bft)
10.03.2013 02:48 4,3 C 3,4 C 98 % 999,5 hPa 0,0 l/m 0 min 0 min 0,0 UV-I 0 W/m 0,0 km/h (0 Bft)
10.03.2013 02:50 4,3 C 3,4 C 98 % 999,6 hPa 0,0 l/m 0 min 0 min 0,0 UV-I 0 W/m 7,7 km/h (2 Bft)
10.03.2013 02:52 4,3 C 3,4 C 98 % 999,5 hPa 0,0 l/m 0 min 0 min 0,0 UV-I 0 W/m 10,3 km/h (2 Bft)
10.03.2013 02:54 4,3 C 3,4 C 98 % 999,5 hPa 0,0 l/m 0 min 0 min 0,0 UV-I 0 W/m 5,1 km/h (1 Bft)
10.03.2013 02:56 4,3 C 3,4 C 98 % 999,5 hPa 0,0 l/m 0 min 0 min 0,0 UV-I 0 W/m 10,3 km/h (2 Bft)
10.03.2013 02:58 4,2 C 2,9 C 98 % 999,5 hPa 0,0 l/m 0 min 0 min 0,0 UV-I 0 W/m 12,9 km/h (3 Bft)
10.03.2013 03:00 4,2 C 2,9 C 98 % 999,5 hPa 0,0 l/m 0 min 0 min 0,0 UV-I 0 W/m 12,9 km/h (3 Bft)
10.03.2013 03:02 4,2 C 2,9 C 98 % 999,5 hPa 0,0 l/m 0 min 0 min 0,0 UV-I 0 W/m 15,4 km/h (3 Bft)
10.03.2013 03:06 4,2 C 2,9 C 98 % 999,5 hPa 0,0 l/m 0 min 0 min 0,0 UV-I 0 W/m 10,3 km/h (2 Bft)
10.03.2013 03:08 4,2 C 2,9 C 98 % 999,5 hPa 0,0 l/m 0 min 0 min 0,0 UV-I 0 W/m 15,4 km/h (3 Bft)
10.03.2013 03:10 4,2 C 2,9 C 98 % 999,5 hPa 0,0 l/m 0 min 0 min 0,0 UV-I 0 W/m 7,7 km/h (2 Bft)
10.03.2013 03:12 4,2 C 2,9 C 98 % 999,5 hPa 0,0 l/m 0 min 0 min 0,0 UV-I 0 W/m 5,1 km/h (1 Bft)
10.03.2013 03:14 4,1 C 2,9 C 98 % 999,5 hPa 0,0 l/m 0 min 0 min 0,0 UV-I 0 W/m 7,7 km/h (2 Bft)
10.03.2013 03:16 4,1 C 2,9 C 98 % 999,4 hPa 0,0 l/m 0 min 0 min 0,0 UV-I 0 W/m 15,4 km/h (3 Bft)
10.03.2013 03:18 4,1 C 2,9 C 98 % 999,4 hPa 0,0 l/m 0 min 0 min 0,0 UV-I 0 W/m 5,1 km/h (1 Bft)
10.03.2013 03:20 4,1 C 2,9 C 98 % 999,3 hPa 0,0 l/m 0 min 0 min 0,0 UV-I 0 W/m 7,7 km/h (2 Bft)
10.03.2013 03:22 4,1 C 2,9 C 98 % 999,3 hPa 0,0 l/m 0 min 0 min 0,0 UV-I 0 W/m 0,0 km/h (0 Bft)
10.03.2013 03:24 4,1 C 2,9 C 98 % 999,3 hPa 0,0 l/m 0 min 0 min 0,0 UV-I 0 W/m 7,7 km/h (2 Bft)
10.03.2013 03:26 4,1 C 2,9 C 98 % 999,3 hPa 0,0 l/m 0 min 0 min 0,0 UV-I 0 W/m 10,3 km/h (2 Bft)
10.03.2013 03:28 4,1 C 2,9 C 98 % 999,3 hPa 0,0 l/m 0 min 0 min 0,0 UV-I 0 W/m 0,0 km/h (0 Bft)
10.03.2013 03:30 4,1 C 2,9 C 98 % 999,3 hPa 0,0 l/m 0 min 0 min 0,0 UV-I 0 W/m 5,1 km/h (1 Bft)
10.03.2013 03:32 4,1 C 2,9 C 98 % 999,3 hPa 0,0 l/m 0 min 0 min 0,0 UV-I 0 W/m 2,6 km/h (1 Bft)
10.03.2013 03:34 4,1 C 2,9 C 98 % 999,3 hPa 0,0 l/m 0 min 0 min 0,0 UV-I 0 W/m 5,1 km/h (1 Bft)
10.03.2013 03:36 4,1 C 2,9 C 98 % 999,2 hPa 0,0 l/m 0 min 0 min 0,0 UV-I 0 W/m 2,6 km/h (1 Bft)
10.03.2013 03:38 4,1 C 2,9 C 98 % 999,1 hPa 0,0 l/m 0 min 0 min 0,0 UV-I 0 W/m 5,1 km/h (1 Bft)
10.03.2013 03:40 4,1 C 2,9 C 98 % 999,1 hPa 0,0 l/m 0 min 0 min 0,0 UV-I 0 W/m 2,6 km/h (1 Bft)
10.03.2013 03:42 4,1 C 2,9 C 98 % 999,2 hPa 0,0 l/m 0 min 0 min 0,0 UV-I 0 W/m 0,0 km/h (0 Bft)
10.03.2013 03:44 4,1 C 2,9 C 98 % 999,2 hPa 0,0 l/m 0 min 0 min 0,0 UV-I 0 W/m 0,0 km/h (0 Bft)
10.03.2013 03:46 4,0 C 2,9 C 98 % 999,2 hPa 0,0 l/m 0 min 0 min 0,0 UV-I 0 W/m 5,1 km/h (1 Bft)
10.03.2013 03:48 4,0 C 2,9 C 98 % 999,1 hPa 0,0 l/m 0 min 0 min 0,0 UV-I 0 W/m 2,6 km/h (1 Bft)
10.03.2013 03:50 4,0 C 2,9 C 98 % 999,1 hPa 0,0 l/m 0 min 0 min 0,0 UV-I 0 W/m 15,4 km/h (3 Bft)
10.03.2013 03:52 4,0 C 2,9 C 98 % 999,1 hPa 0,0 l/m 0 min 0 min 0,0 UV-I 0 W/m 10,3 km/h (2 Bft)
10.03.2013 03:54 3,9 C 2,9 C 98 % 999,2 hPa 0,0 l/m 0 min 0 min 0,0 UV-I 0 W/m 7,7 km/h (2 Bft)
10.03.2013 03:56 3,9 C 2,9 C 98 % 999,2 hPa 0,0 l/m 0 min 0 min 0,0 UV-I 0 W/m 7,7 km/h (2 Bft)
10.03.2013 03:58 3,9 C 2,9 C 97 % 999,2 hPa 0,0 l/m 0 min 0 min 0,0 UV-I 0 W/m 0,0 km/h (0 Bft)
10.03.2013 04:00 3,9 C 2,9 C 97 % 999,2 hPa 0,0 l/m 0 min 0 min 0,0 UV-I 0 W/m 2,6 km/h (1 Bft)
10.03.2013 04:02 3,9 C 2,9 C 97 % 999,2 hPa 0,0 l/m 0 min 0 min 0,0 UV-I 0 W/m 0,0 km/h (0 Bft)
10.03.2013 04:04 3,9 C 2,9 C 97 % 999,1 hPa 0,0 l/m 0 min 0 min 0,0 UV-I 0 W/m 15,4 km/h (3 Bft)
10.03.2013 04:06 3,9 C 2,9 C 97 % 999,1 hPa 0,0 l/m 0 min 0 min 0,0 UV-I 0 W/m 0,0 km/h (0 Bft)
10.03.2013 04:08 3,9 C 2,9 C 97 % 999,1 hPa 0,0 l/m 0 min 0 min 0,0 UV-I 0 W/m 2,6 km/h (1 Bft)
10.03.2013 04:10 3,9 C 2,9 C 97 % 999,1 hPa 0,0 l/m 0 min 0 min 0,0 UV-I 0 W/m 15,4 km/h (3 Bft)
10.03.2013 04:12 3,9 C 2,9 C 97 % 999,2 hPa 0,0 l/m 0 min 0 min 0,0 UV-I 0 W/m 5,1 km/h (1 Bft)
10.03.2013 04:14 3,8 C 2,9 C 97 % 999,1 hPa 0,0 l/m 0 min 0 min 0,0 UV-I 0 W/m 0,0 km/h (0 Bft)
10.03.2013 04:16 3,8 C 2,9 C 97 % 999,1 hPa 0,0 l/m 0 min 0 min 0,0 UV-I 0 W/m 5,1 km/h (1 Bft)
10.03.2013 04:18 3,8 C 2,9 C 97 % 999,1 hPa 0,0 l/m 0 min 0 min 0,0 UV-I 0 W/m 0,0 km/h (0 Bft)
10.03.2013 04:20 3,8 C 2,9 C 97 % 999,2 hPa 0,0 l/m 0 min 0 min 0,0 UV-I 0 W/m 5,1 km/h (1 Bft)
10.03.2013 04:22 3,8 C 2,9 C 97 % 999,1 hPa 0,0 l/m 0 min 0 min 0,0 UV-I 0 W/m 0,0 km/h (0 Bft)
10.03.2013 04:24 3,8 C 2,9 C 97 % 999,1 hPa 0,0 l/m 0 min 0 min 0,0 UV-I 0 W/m 5,1 km/h (1 Bft)
10.03.2013 04:26 3,8 C 2,9 C 97 % 999,1 hPa 0,0 l/m 0 min 0 min 0,0 UV-I 0 W/m 10,3 km/h (2 Bft)
10.03.2013 04:28 3,8 C 2,9 C 97 % 999,0 hPa 0,0 l/m 0 min 0 min 0,0 UV-I 0 W/m 5,1 km/h (1 Bft)
10.03.2013 04:30 3,8 C 2,9 C 97 % 999,0 hPa 0,0 l/m 0 min 0 min 0,0 UV-I 0 W/m 5,1 km/h (1 Bft)
10.03.2013 04:32 3,8 C 2,9 C 97 % 999,0 hPa 0,0 l/m 0 min 0 min 0,0 UV-I 0 W/m 2,6 km/h (1 Bft)
10.03.2013 04:34 3,8 C 2,9 C 97 % 999,0 hPa 0,0 l/m 0 min 0 min 0,0 UV-I 0 W/m 0,0 km/h (0 Bft)
10.03.2013 04:36 3,8 C 2,9 C 97 % 999,0 hPa 0,0 l/m 0 min 0 min 0,0 UV-I 0 W/m 2,6 km/h (1 Bft)
10.03.2013 04:38 3,8 C 2,9 C 97 % 999,1 hPa 0,0 l/m 0 min 0 min 0,0 UV-I 0 W/m 2,6 km/h (1 Bft)
10.03.2013 04:40 3,8 C 2,9 C 97 % 999,1 hPa 0,0 l/m 0 min 0 min 0,0 UV-I 0 W/m 0,0 km/h (0 Bft)
10.03.2013 04:42 3,8 C 2,9 C 97 % 999,1 hPa 0,0 l/m 0 min 0 min 0,0 UV-I 0 W/m 0,0 km/h (0 Bft)
10.03.2013 04:44 3,8 C 2,9 C 97 % 999,1 hPa 0,0 l/m 0 min 0 min 0,0 UV-I 0 W/m 0,0 km/h (0 Bft)
10.03.2013 04:46 3,8 C 2,9 C 97 % 999,0 hPa 0,0 l/m 0 min 0 min 0,0 UV-I 0 W/m 2,6 km/h (1 Bft)
10.03.2013 04:48 3,8 C 2,9 C 97 % 999,0 hPa 0,0 l/m 0 min 0 min 0,0 UV-I 0 W/m 0,0 km/h (0 Bft)
10.03.2013 04:50 3,8 C 2,9 C 97 % 999,1 hPa 0,0 l/m 0 min 0 min 0,0 UV-I 0 W/m 0,0 km/h (0 Bft)
10.03.2013 04:52 3,8 C 2,9 C 97 % 999,0 hPa 0,0 l/m 0 min 0 min 0,0 UV-I 0 W/m 7,7 km/h (2 Bft)
10.03.2013 04:54 3,8 C 2,9 C 97 % 999,0 hPa 0,0 l/m 0 min 0 min 0,0 UV-I 0 W/m 0,0 km/h (0 Bft)
10.03.2013 04:55 3,8 C 2,9 C 97 % 999,0 hPa 0,0 l/m 0 min 0 min 0,0 UV-I 0 W/m 7,7 km/h (2 Bft)
10.03.2013 05:00 3,8 C 2,9 C 97 % 999,0 hPa 0,0 l/m 0 min 0 min 0,0 UV-I 0 W/m 5,1 km/h (1 Bft)
10.03.2013 05:05 3,7 C 2,3 C 97 % 999,0 hPa 0,0 l/m 0 min 0 min 0,0 UV-I 0 W/m 10,3 km/h (2 Bft)
10.03.2013 05:10 3,7 C 2,3 C 97 % 998,9 hPa 0,0 l/m 0 min 0 min 0,0 UV-I 0 W/m 7,7 km/h (2 Bft)
10.03.2013 05:15 3,7 C 2,3 C 97 % 999,0 hPa 0,0 l/m 0 min 0 min 0,0 UV-I 0 W/m 2,6 km/h (1 Bft)
10.03.2013 05:20 3,7 C 2,3 C 97 % 998,8 hPa 0,0 l/m 0 min 0 min 0,0 UV-I 0 W/m 7,7 km/h (2 Bft)
10.03.2013 05:25 3,6 C 2,3 C 97 % 998,9 hPa 0,0 l/m 0 min 0 min 0,0 UV-I 0 W/m 10,3 km/h (2 Bft)
10.03.2013 05:30 3,6 C 2,3 C 97 % 999,0 hPa 0,0 l/m 0 min 0 min 0,0 UV-I 0 W/m 7,7 km/h (2 Bft)
10.03.2013 05:35 3,6 C 2,3 C 97 % 998,9 hPa 0,0 l/m 0 min 0 min 0,0 UV-I 0 W/m 2,6 km/h (1 Bft)
10.03.2013 05:40 3,5 C 2,3 C 97 % 998,8 hPa 0,0 l/m 0 min 0 min 0,0 UV-I 0 W/m 12,9 km/h (3 Bft)
10.03.2013 05:45 3,4 C 2,3 C 97 % 998,8 hPa 0,0 l/m 0 min 0 min 0,0 UV-I 0 W/m 7,7 km/h (2 Bft)
10.03.2013 05:50 3,4 C 2,3 C 97 % 998,8 hPa 0,0 l/m 0 min 0 min 0,0 UV-I 0 W/m 12,9 km/h (3 Bft)
10.03.2013 05:55 3,3 C 2,3 C 97 % 998,8 hPa 0,0 l/m 0 min 0 min 0,0 UV-I 0 W/m 10,3 km/h (2 Bft)
10.03.2013 06:00 3,3 C 2,3 C 97 % 998,8 hPa 0,0 l/m 0 min 0 min 0,0 UV-I 0 W/m 5,1 km/h (1 Bft)
10.03.2013 06:05 3,3 C 2,3 C 97 % 998,8 hPa 0,0 l/m 0 min 0 min 0,0 UV-I 0 W/m 7,7 km/h (2 Bft)
10.03.2013 06:10 3,3 C 2,3 C 97 % 998,8 hPa 0,0 l/m 0 min 0 min 0,0 UV-I 0 W/m 7,7 km/h (2 Bft)
10.03.2013 06:15 3,3 C 2,3 C 97 % 998,8 hPa 0,0 l/m 0 min 0 min 0,0 UV-I 0 W/m 5,1 km/h (1 Bft)
10.03.2013 06:20 3,3 C 2,3 C 97 % 998,8 hPa 0,0 l/m 0 min 0 min 0,0 UV-I 0 W/m 2,6 km/h (1 Bft)
10.03.2013 06:25 3,3 C 2,3 C 97 % 998,7 hPa 0,0 l/m 0 min 0 min 0,0 UV-I 0 W/m 10,3 km/h (2 Bft)
10.03.2013 06:30 3,3 C 2,3 C 97 % 998,6 hPa 0,0 l/m 0 min 0 min 0,0 UV-I 0 W/m 10,3 km/h (2 Bft)
10.03.2013 06:35 3,3 C 2,3 C 97 % 998,6 hPa 0,0 l/m 0 min 0 min 0,0 UV-I 0 W/m 12,9 km/h (3 Bft)
10.03.2013 06:40 3,3 C 2,3 C 97 % 998,7 hPa 0,0 l/m 0 min 0 min 0,0 UV-I 0 W/m 5,1 km/h (1 Bft)
10.03.2013 06:45 3,3 C 2,3 C 97 % 998,7 hPa 0,0 l/m 0 min 0 min 0,0 UV-I 0 W/m 0,0 km/h (0 Bft)
10.03.2013 06:50 3,3 C 2,3 C 97 % 998,6 hPa 0,0 l/m 0 min 2 min 0,0 UV-I 0 W/m 10,3 km/h (2 Bft)
10.03.2013 06:55 3,2 C 2,3 C 97 % 998,7 hPa 0,0 l/m 0 min 2 min 0,0 UV-I 0 W/m 10,3 km/h (2 Bft)
10.03.2013 07:00 3,2 C 1,8 C 97 % 998,7 hPa 0,2 l/m 0 min 2 min 0,0 UV-I 0 W/m 10,3 km/h (2 Bft)
10.03.2013 07:05 3,2 C 1,8 C 97 % 998,6 hPa 0,0 l/m 0 min 0 min 0,0 UV-I 0 W/m 10,3 km/h (2 Bft)
10.03.2013 07:10 3,2 C 1,8 C 97 % 998,7 hPa 0,0 l/m 0 min 2 min 0,0 UV-I 0 W/m 10,3 km/h (2 Bft)
10.03.2013 07:15 3,2 C 2,3 C 97 % 998,7 hPa 0,0 l/m 0 min 0 min 0,0 UV-I 0 W/m 0,0 km/h (0 Bft)
10.03.2013 07:20 3,2 C 1,8 C 97 % 998,7 hPa 0,0 l/m 0 min 0 min 0,0 UV-I 0 W/m 7,7 km/h (2 Bft)
10.03.2013 07:25 3,2 C 1,8 C 97 % 998,7 hPa 0,0 l/m 0 min 0 min 0,0 UV-I 0 W/m 5,1 km/h (1 Bft)
10.03.2013 07:30 3,2 C 1,8 C 97 % 998,7 hPa 0,0 l/m 0 min 0 min 0,0 UV-I 0 W/m 12,9 km/h (3 Bft)
10.03.2013 07:35 3,1 C 1,8 C 97 % 998,6 hPa 0,0 l/m 0 min 2 min 0,0 UV-I 7 W/m 10,3 km/h (2 Bft)
10.03.2013 07:40 3,1 C 2,3 C 97 % 998,7 hPa 0,0 l/m 0 min 2 min 0,0 UV-I 7 W/m 5,1 km/h (1 Bft)
10.03.2013 07:45 3,1 C 1,8 C 97 % 998,7 hPa 0,0 l/m 0 min 0 min 0,0 UV-I 9 W/m 10,3 km/h (2 Bft)
10.03.2013 07:50 3,1 C 2,3 C 97 % 998,8 hPa 0,0 l/m 0 min 0 min 0,0 UV-I 12 W/m 5,1 km/h (1 Bft)
10.03.2013 07:54 3,1 C 2,3 C 97 % 998,7 hPa 0,0 l/m 0 min 0 min 0,0 UV-I 9 W/m 2,6 km/h (1 Bft)
10.03.2013 07:56 3,1 C 1,8 C 97 % 998,8 hPa 0,0 l/m 0 min 0 min 0,0 UV-I 9 W/m 10,3 km/h (2 Bft)
10.03.2013 07:58 3,1 C 1,8 C 97 % 998,8 hPa 0,0 l/m 0 min 0 min 0,0 UV-I 9 W/m 5,1 km/h (1 Bft)
10.03.2013 08:00 3,1 C 1,8 C 97 % 998,7 hPa 0,0 l/m 0 min 0 min 0,0 UV-I 7 W/m 12,9 km/h (3 Bft)
10.03.2013 08:02 3,1 C 1,8 C 97 % 998,7 hPa 0,0 l/m 0 min 0 min 0,0 UV-I 7 W/m 0,0 km/h (0 Bft)
10.03.2013 08:04 3,1 C 1,8 C 97 % 998,7 hPa 0,0 l/m 0 min 0 min 0,0 UV-I 7 W/m 5,1 km/h (1 Bft)
10.03.2013 08:06 3,1 C 1,8 C 97 % 998,7 hPa 0,0 l/m 0 min 2 min 0,0 UV-I 7 W/m 5,1 km/h (1 Bft)
10.03.2013 08:08 3,0 C 1,8 C 97 % 998,8 hPa 0,0 l/m 0 min 2 min 0,0 UV-I 7 W/m 12,9 km/h (3 Bft)
10.03.2013 08:10 2,9 C 1,8 C 97 % 998,8 hPa 0,0 l/m 0 min 2 min 0,0 UV-I 7 W/m 10,3 km/h (2 Bft)
10.03.2013 08:12 2,9 C 1,8 C 97 % 998,8 hPa 0,0 l/m 0 min 2 min 0,0 UV-I 9 W/m 2,6 km/h (1 Bft)
10.03.2013 08:14 2,9 C 1,8 C 97 % 998,9 hPa 0,0 l/m 0 min 2 min 0,0 UV-I 12 W/m 12,9 km/h (3 Bft)
10.03.2013 08:16 2,8 C 1,8 C 97 % 998,9 hPa 0,0 l/m 0 min 2 min 0,0 UV-I 19 W/m 2,6 km/h (1 Bft)
10.03.2013 08:18 2,8 C 1,2 C 97 % 998,9 hPa 0,2 l/m 0 min 2 min 0,0 UV-I 21 W/m 0,0 km/h (0 Bft)
10.03.2013 08:20 2,8 C 1,2 C 97 % 999,0 hPa 0,0 l/m 0 min 0 min 0,0 UV-I 21 W/m 0,0 km/h (0 Bft)
10.03.2013 08:22 2,7 C 1,8 C 97 % 998,9 hPa 0,0 l/m 0 min 0 min 0,0 UV-I 26 W/m 0,0 km/h (0 Bft)
10.03.2013 08:24 2,7 C 1,2 C 97 % 999,0 hPa 0,0 l/m 0 min 0 min 0,0 UV-I 28 W/m 7,7 km/h (2 Bft)
10.03.2013 08:26 2,7 C 1,2 C 97 % 999,0 hPa 0,0 l/m 0 min 0 min 0,0 UV-I 28 W/m 5,1 km/h (1 Bft)
10.03.2013 08:28 2,6 C 1,2 C 97 % 999,0 hPa 0,0 l/m 0 min 0 min 0,0 UV-I 25 W/m 5,1 km/h (1 Bft)
10.03.2013 08:30 2,6 C 1,2 C 96 % 999,0 hPa 0,0 l/m 0 min 0 min 0,0 UV-I 28 W/m 7,7 km/h (2 Bft)
10.03.2013 08:32 2,6 C 1,2 C 97 % 999,0 hPa 0,0 l/m 0 min 0 min 0,0 UV-I 28 W/m 0,0 km/h (0 Bft)
10.03.2013 08:34 2,6 C 1,8 C 97 % 999,0 hPa 0,0 l/m 0 min 0 min 0,0 UV-I 21 W/m 0,0 km/h (0 Bft)
10.03.2013 08:36 2,6 C 1,8 C 97 % 999,0 hPa 0,0 l/m 0 min 0 min 0,0 UV-I 30 W/m 0,0 km/h (0 Bft)
10.03.2013 08:38 2,6 C 1,8 C 97 % 999,0 hPa 0,0 l/m 0 min 0 min 0,0 UV-I 39 W/m 5,1 km/h (1 Bft)
10.03.2013 08:40 2,5 C 1,8 C 97 % 999,0 hPa 0,0 l/m 0 min 2 min 0,0 UV-I 35 W/m 5,1 km/h (1 Bft)
10.03.2013 08:42 2,5 C 1,8 C 97 % 999,0 hPa 0,0 l/m 0 min 2 min 0,0 UV-I 42 W/m 12,9 km/h (3 Bft)
10.03.2013 08:44 2,5 C 1,8 C 97 % 999,0 hPa 0,0 l/m 0 min 2 min 0,0 UV-I 49 W/m 7,7 km/h (2 Bft)
10.03.2013 08:46 2,4 C 1,8 C 97 % 999,0 hPa 0,0 l/m 0 min 2 min 0,0 UV-I 54 W/m 5,1 km/h (1 Bft)
10.03.2013 08:48 2,4 C 1,8 C 97 % 999,0 hPa 0,0 l/m 0 min 2 min 0,0 UV-I 54 W/m 7,7 km/h (2 Bft)
10.03.2013 08:50 2,4 C 1,8 C 97 % 999,1 hPa 0,0 l/m 0 min 2 min 0,0 UV-I 58 W/m 5,1 km/h (1 Bft)
10.03.2013 08:52 2,4 C 1,8 C 97 % 999,1 hPa 0,0 l/m 0 min 2 min 0,0 UV-I 60 W/m 5,1 km/h (1 Bft)
10.03.2013 08:54 2,4 C 1,8 C 97 % 999,1 hPa 0,0 l/m 0 min 0 min 0,0 UV-I 58 W/m 5,1 km/h (1 Bft)
10.03.2013 08:56 2,3 C 1,8 C 97 % 999,1 hPa 0,0 l/m 0 min 0 min 0,0 UV-I 56 W/m 5,1 km/h (1 Bft)
10.03.2013 08:58 2,3 C 1,8 C 97 % 999,1 hPa 0,0 l/m 0 min 2 min 0,0 UV-I 46 W/m 5,1 km/h (1 Bft)
10.03.2013 09:00 2,3 C 1,2 C 97 % 999,1 hPa 0,0 l/m 0 min 2 min 0,0 UV-I 49 W/m 5,1 km/h (1 Bft)
10.03.2013 09:02 2,3 C 1,2 C 97 % 999,1 hPa 0,0 l/m 0 min 2 min 0,0 UV-I 53 W/m 7,7 km/h (2 Bft)
10.03.2013 09:04 2,2 C 1,2 C 97 % 999,1 hPa 0,0 l/m 0 min 2 min 0,0 UV-I 53 W/m 2,6 km/h (1 Bft)
10.03.2013 09:06 2,2 C 1,2 C 97 % 999,1 hPa 0,0 l/m 0 min 2 min 0,0 UV-I 62 W/m 2,6 km/h (1 Bft)
10.03.2013 09:08 2,2 C 1,2 C 97 % 999,1 hPa 0,0 l/m 0 min 2 min 0,0 UV-I 58 W/m 10,3 km/h (2 Bft)
10.03.2013 09:10 2,2 C 1,2 C 97 % 999,1 hPa 0,0 l/m 0 min 2 min 0,0 UV-I 49 W/m 12,9 km/h (3 Bft)
10.03.2013 09:12 2,2 C 1,2 C 97 % 999,1 hPa 0,0 l/m 0 min 2 min 0,0 UV-I 46 W/m 10,3 km/h (2 Bft)
10.03.2013 09:14 2,2 C 1,2 C 97 % 999,1 hPa 0,0 l/m 0 min 2 min 0,0 UV-I 53 W/m 5,1 km/h (1 Bft)
10.03.2013 09:16 2,2 C 1,8 C 97 % 999,1 hPa 0,0 l/m 0 min 2 min 0,0 UV-I 56 W/m 5,1 km/h (1 Bft)
10.03.2013 09:18 2,2 C 1,2 C 97 % 999,2 hPa 0,0 l/m 0 min 2 min 0,0 UV-I 54 W/m 10,3 km/h (2 Bft)
10.03.2013 09:20 2,2 C 1,2 C 97 % 999,2 hPa 0,0 l/m 0 min 2 min 0,0 UV-I 54 W/m 0,0 km/h (0 Bft)
10.03.2013 09:22 2,2 C 1,2 C 97 % 999,1 hPa 0,0 l/m 0 min 2 min 0,0 UV-I 54 W/m 7,7 km/h (2 Bft)
10.03.2013 09:24 2,1 C 1,2 C 97 % 999,1 hPa 0,0 l/m 0 min 2 min 0,0 UV-I 58 W/m 5,1 km/h (1 Bft)
10.03.2013 09:26 2,2 C 1,2 C 97 % 999,1 hPa 0,2 l/m 0 min 2 min 0,0 UV-I 65 W/m 5,1 km/h (1 Bft)
10.03.2013 09:28 2,1 C 1,2 C 97 % 999,1 hPa 0,0 l/m 0 min 2 min 0,0 UV-I 74 W/m 2,6 km/h (1 Bft)
10.03.2013 09:30 2,1 C 1,2 C 97 % 999,2 hPa 0,0 l/m 0 min 2 min 0,0 UV-I 74 W/m 10,3 km/h (2 Bft)
10.03.2013 09:32 2,1 C 1,2 C 97 % 999,1 hPa 0,0 l/m 0 min 2 min 0,0 UV-I 67 W/m 0,0 km/h (0 Bft)
10.03.2013 09:34 2,1 C 1,2 C 97 % 999,1 hPa 0,0 l/m 0 min 2 min 0,0 UV-I 70 W/m 2,6 km/h (1 Bft)
10.03.2013 09:36 2,1 C 1,2 C 97 % 999,1 hPa 0,0 l/m 0 min 2 min 0,0 UV-I 74 W/m 7,7 km/h (2 Bft)
10.03.2013 09:38 2,1 C 1,2 C 97 % 999,2 hPa 0,0 l/m 0 min 2 min 0,0 UV-I 63 W/m 10,3 km/h (2 Bft)
10.03.2013 09:40 2,1 C 1,8 C 97 % 999,2 hPa 0,0 l/m 0 min 2 min 0,0 UV-I 70 W/m 0,0 km/h (0 Bft)
10.03.2013 09:42 2,1 C 1,8 C 97 % 999,1 hPa 0,0 l/m 0 min 2 min 0,0 UV-I 81 W/m 7,7 km/h (2 Bft)
10.03.2013 09:44 2,1 C 1,8 C 97 % 999,1 hPa 0,0 l/m 0 min 0 min 0,0 UV-I 83 W/m 5,1 km/h (1 Bft)
10.03.2013 09:46 2,1 C 1,8 C 97 % 999,2 hPa 0,0 l/m 0 min 0 min 0,0 UV-I 74 W/m 0,0 km/h (0 Bft)
10.03.2013 09:48 2,1 C 1,8 C 97 % 999,2 hPa 0,0 l/m 0 min 0 min 0,0 UV-I 67 W/m 0,0 km/h (0 Bft)
10.03.2013 09:50 2,1 C 1,8 C 97 % 999,2 hPa 0,0 l/m 0 min 2 min 0,0 UV-I 77 W/m 0,0 km/h (0 Bft)
10.03.2013 09:52 2,1 C 1,8 C 97 % 999,2 hPa 0,0 l/m 0 min 2 min 0,0 UV-I 70 W/m 7,7 km/h (2 Bft)
10.03.2013 09:54 2,1 C 1,8 C 97 % 999,2 hPa 0,0 l/m 0 min 2 min 0,0 UV-I 72 W/m 5,1 km/h (1 Bft)
10.03.2013 09:56 2,1 C 1,8 C 97 % 999,2 hPa 0,0 l/m 0 min 2 min 0,0 UV-I 81 W/m 5,1 km/h (1 Bft)
10.03.2013 09:58 2,1 C 1,8 C 97 % 999,2 hPa 0,0 l/m 0 min 2 min 0,0 UV-I 81 W/m 7,7 km/h (2 Bft)
10.03.2013 10:00 2,1 C 1,8 C 97 % 999,2 hPa 0,0 l/m 0 min 2 min 0,0 UV-I 70 W/m 0,0 km/h (0 Bft)
10.03.2013 10:02 2,1 C 1,8 C 97 % 999,2 hPa 0,0 l/m 0 min 2 min 0,0 UV-I 83 W/m 7,7 km/h (2 Bft)
10.03.2013 10:04 2,1 C 1,8 C 97 % 999,2 hPa 0,0 l/m 0 min 2 min 0,0 UV-I 84 W/m 5,1 km/h (1 Bft)
10.03.2013 10:06 2,1 C 1,8 C 97 % 999,2 hPa 0,0 l/m 0 min 2 min 0,0 UV-I 88 W/m 7,7 km/h (2 Bft)
10.03.2013 10:08 2,1 C 1,2 C 97 % 999,3 hPa 0,0 l/m 0 min 2 min 0,0 UV-I 88 W/m 7,7 km/h (2 Bft)
10.03.2013 10:10 2,1 C 1,2 C 97 % 999,3 hPa 0,0 l/m 0 min 2 min 0,0 UV-I 88 W/m 10,3 km/h (2 Bft)
10.03.2013 10:12 2,1 C 1,2 C 97 % 999,3 hPa 0,2 l/m 0 min 2 min 0,0 UV-I 84 W/m 10,3 km/h (2 Bft)
10.03.2013 10:14 2,1 C 1,2 C 97 % 999,2 hPa 0,0 l/m 0 min 2 min 0,0 UV-I 84 W/m 5,1 km/h (1 Bft)
10.03.2013 10:16 2,0 C 1,2 C 97 % 999,3 hPa 0,0 l/m 0 min 2 min 0,0 UV-I 77 W/m 7,7 km/h (2 Bft)
10.03.2013 10:18 2,0 C 1,2 C 97 % 999,3 hPa 0,0 l/m 0 min 2 min 0,0 UV-I 74 W/m 0,0 km/h (0 Bft)
10.03.2013 10:20 2,0 C 1,2 C 97 % 999,3 hPa 0,0 l/m 0 min 2 min 0,0 UV-I 90 W/m 0,0 km/h (0 Bft)
10.03.2013 10:22 2,0 C 1,2 C 97 % 999,2 hPa 0,0 l/m 0 min 2 min 0,0 UV-I 83 W/m 0,0 km/h (0 Bft)
10.03.2013 10:24 2,0 C 1,8 C 97 % 999,4 hPa 0,0 l/m 0 min 2 min 0,0 UV-I 102 W/m 0,0 km/h (0 Bft)
10.03.2013 10:26 2,0 C 1,8 C 97 % 999,5 hPa 0,0 l/m 0 min 2 min 0,0 UV-I 93 W/m 2,6 km/h (1 Bft)
10.03.2013 10:28 2,0 C 1,8 C 97 % 999,3 hPa 0,0 l/m 0 min 2 min 0,0 UV-I 107 W/m 7,7 km/h (2 Bft)
10.03.2013 10:30 2,0 C 1,8 C 97 % 999,3 hPa 0,0 l/m 0 min 2 min 0,0 UV-I 102 W/m 2,6 km/h (1 Bft)
10.03.2013 10:32 2,1 C 1,8 C 97 % 999,4 hPa 0,0 l/m 0 min 2 min 0,0 UV-I 97 W/m 5,1 km/h (1 Bft)
10.03.2013 10:34 2,0 C 1,2 C 97 % 999,4 hPa 0,0 l/m 0 min 2 min 0,0 UV-I 90 W/m 12,9 km/h (3 Bft)
10.03.2013 10:36 1,9 C 1,2 C 97 % 999,3 hPa 0,0 l/m 0 min 2 min 0,0 UV-I 65 W/m 7,7 km/h (2 Bft)
10.03.2013 10:38 1,9 C 1,2 C 97 % 999,4 hPa 0,2 l/m 0 min 2 min 0,0 UV-I 62 W/m 10,3 km/h (2 Bft)
10.03.2013 10:40 1,9 C 1,2 C 97 % 999,4 hPa 0,0 l/m 0 min 2 min 0,0 UV-I 72 W/m 12,9 km/h (3 Bft)
10.03.2013 10:42 1,9 C 1,2 C 97 % 999,4 hPa 0,0 l/m 0 min 2 min 0,0 UV-I 72 W/m 7,7 km/h (2 Bft)
10.03.2013 10:44 1,8 C 1,2 C 97 % 999,4 hPa 0,0 l/m 0 min 2 min 0,0 UV-I 67 W/m 12,9 km/h (3 Bft)
10.03.2013 10:46 1,8 C 1,2 C 97 % 999,4 hPa 0,0 l/m 0 min 2 min 0,0 UV-I 70 W/m 7,7 km/h (2 Bft)
10.03.2013 10:48 1,8 C 1,2 C 97 % 999,4 hPa 0,0 l/m 0 min 2 min 0,0 UV-I 83 W/m 5,1 km/h (1 Bft)
10.03.2013 10:50 1,8 C 1,2 C 97 % 999,4 hPa 0,0 l/m 0 min 2 min 0,0 UV-I 72 W/m 5,1 km/h (1 Bft)
10.03.2013 10:52 1,8 C 1,2 C 97 % 999,4 hPa 0,0 l/m 0 min 2 min 0,0 UV-I 86 W/m 2,6 km/h (1 Bft)
10.03.2013 10:54 1,8 C 1,2 C 97 % 999,5 hPa 0,0 l/m 0 min 2 min 0,0 UV-I 88 W/m 7,7 km/h (2 Bft)
10.03.2013 10:56 1,8 C 1,2 C 97 % 999,5 hPa 0,0 l/m 0 min 2 min 0,0 UV-I 84 W/m 7,7 km/h (2 Bft)
10.03.2013 10:58 1,8 C 1,2 C 97 % 999,6 hPa 0,0 l/m 0 min 2 min 0,0 UV-I 102 W/m 15,4 km/h (3 Bft)
10.03.2013 11:00 1,8 C 1,2 C 97 % 999,5 hPa 0,0 l/m 0 min 2 min 0,0 UV-I 91 W/m 12,9 km/h (3 Bft)
10.03.2013 11:02 1,7 C 1,2 C 97 % 999,6 hPa 0,2 l/m 0 min 2 min 0,0 UV-I 98 W/m 12,9 km/h (3 Bft)
10.03.2013 11:04 1,7 C 1,2 C 97 % 999,6 hPa 0,0 l/m 0 min 2 min 0,0 UV-I 102 W/m 2,6 km/h (1 Bft)
10.03.2013 11:06 1,7 C 1,2 C 97 % 999,6 hPa 0,0 l/m 0 min 2 min 0,0 UV-I 76 W/m 7,7 km/h (2 Bft)
10.03.2013 11:08 1,7 C 1,2 C 97 % 999,7 hPa 0,0 l/m 0 min 2 min 0,0 UV-I 74 W/m 7,7 km/h (2 Bft)
10.03.2013 11:10 1,7 C 0,7 C 97 % 999,7 hPa 0,0 l/m 0 min 2 min 0,0 UV-I 69 W/m 10,3 km/h (2 Bft)
10.03.2013 11:12 1,7 C 0,7 C 97 % 999,7 hPa 0,0 l/m 0 min 2 min 0,0 UV-I 90 W/m 2,6 km/h (1 Bft)
10.03.2013 11:14 1,7 C 0,7 C 97 % 999,7 hPa 0,0 l/m 0 min 2 min 0,0 UV-I 77 W/m 5,1 km/h (1 Bft)
10.03.2013 11:16 1,7 C 1,2 C 97 % 999,8 hPa 0,0 l/m 0 min 2 min 0,0 UV-I 70 W/m 0,0 km/h (0 Bft)
10.03.2013 11:18 1,7 C 1,2 C 97 % 999,8 hPa 0,0 l/m 0 min 2 min 0,0 UV-I 72 W/m 7,7 km/h (2 Bft)
10.03.2013 11:20 1,7 C 1,2 C 97 % 999,8 hPa 0,0 l/m 0 min 2 min 0,0 UV-I 91 W/m 2,6 km/h (1 Bft)
10.03.2013 11:22 1,6 C 1,2 C 98 % 999,8 hPa 0,0 l/m 0 min 2 min 0,0 UV-I 104 W/m 15,4 km/h (3 Bft)
10.03.2013 11:24 1,7 C 1,2 C 98 % 999,8 hPa 0,0 l/m 0 min 2 min 0,0 UV-I 102 W/m 5,1 km/h (1 Bft)
10.03.2013 11:26 1,7 C 1,2 C 98 % 999,8 hPa 0,0 l/m 0 min 2 min 0,0 UV-I 81 W/m 5,1 km/h (1 Bft)
10.03.2013 11:28 1,7 C 1,2 C 98 % 999,9 hPa 0,0 l/m 0 min 2 min 0,0 UV-I 97 W/m 7,7 km/h (2 Bft)
10.03.2013 11:30 1,7 C 1,2 C 98 % 999,9 hPa 0,2 l/m 0 min 2 min 0,0 UV-I 97 W/m 10,3 km/h (2 Bft)
10.03.2013 11:32 1,7 C 1,2 C 98 % 999,9 hPa 0,0 l/m 0 min 2 min 0,0 UV-I 76 W/m 12,9 km/h (3 Bft)
10.03.2013 11:34 1,7 C 1,2 C 98 % 999,9 hPa 0,0 l/m 0 min 2 min 0,0 UV-I 79 W/m 7,7 km/h (2 Bft)
10.03.2013 11:36 1,7 C 1,2 C 98 % 999,9 hPa 0,0 l/m 0 min 2 min 0,0 UV-I 81 W/m 5,1 km/h (1 Bft)
10.03.2013 11:38 1,7 C 1,2 C 98 % 1000,0 hPa 0,0 l/m 0 min 2 min 0,0 UV-I 86 W/m 18,0 km/h (3 Bft)
10.03.2013 11:40 1,7 C 1,2 C 98 % 1000,0 hPa 0,0 l/m 0 min 2 min 0,0 UV-I 84 W/m 10,3 km/h (2 Bft)
10.03.2013 11:42 1,7 C 1,2 C 98 % 1000,0 hPa 0,0 l/m 0 min 2 min 0,0 UV-I 76 W/m 7,7 km/h (2 Bft)
10.03.2013 11:44 1,7 C 1,2 C 98 % 1000,0 hPa 0,0 l/m 0 min 2 min 0,0 UV-I 83 W/m 15,4 km/h (3 Bft)
10.03.2013 11:46 1,7 C 1,2 C 98 % 1000,0 hPa 0,0 l/m 0 min 2 min 0,0 UV-I 111 W/m 15,4 km/h (3 Bft)
10.03.2013 11:48 1,7 C 0,7 C 98 % 1000,0 hPa 0,0 l/m 0 min 2 min 0,0 UV-I 114 W/m 18,0 km/h (3 Bft)
10.03.2013 11:50 1,6 C 0,7 C 98 % 1000,0 hPa 0,0 l/m 0 min 2 min 0,0 UV-I 105 W/m 20,6 km/h (4 Bft)
10.03.2013 11:52 1,6 C 0,7 C 98 % 1000,1 hPa 0,0 l/m 0 min 2 min 0,0 UV-I 111 W/m 18,0 km/h (3 Bft)
10.03.2013 11:54 1,5 C 0,7 C 98 % 1000,0 hPa 0,0 l/m 0 min 0 min 0,0 UV-I 97 W/m 12,9 km/h (3 Bft)
10.03.2013 11:56 1,4 C 0,7 C 98 % 1000,1 hPa 0,0 l/m 0 min 2 min 0,0 UV-I 84 W/m 15,4 km/h (3 Bft)
10.03.2013 11:58 1,4 C 1,2 C 98 % 1000,1 hPa 0,0 l/m 0 min 2 min 0,0 UV-I 95 W/m 10,3 km/h (2 Bft)
10.03.2013 12:00 1,4 C 0,7 C 97 % 1000,1 hPa 0,0 l/m 0 min 2 min 0,0 UV-I 72 W/m 15,4 km/h (3 Bft)
10.03.2013 12:02 1,4 C 0,7 C 97 % 1000,1 hPa 0,0 l/m 0 min 0 min 0,0 UV-I 67 W/m 12,9 km/h (3 Bft)
10.03.2013 12:04 1,4 C 0,7 C 97 % 1000,2 hPa 0,0 l/m 0 min 2 min 0,0 UV-I 84 W/m 18,0 km/h (3 Bft)
10.03.2013 12:06 1,4 C 0,7 C 97 % 1000,3 hPa 0,0 l/m 0 min 0 min 0,0 UV-I 86 W/m 18,0 km/h (3 Bft)
10.03.2013 12:08 1,4 C 0,7 C 97 % 1000,3 hPa 0,0 l/m 0 min 0 min 0,0 UV-I 90 W/m 12,9 km/h (3 Bft)
10.03.2013 12:10 1,4 C 0,7 C 97 % 1000,4 hPa 0,0 l/m 0 min 0 min 0,0 UV-I 88 W/m 15,4 km/h (3 Bft)
10.03.2013 12:12 1,4 C 0,7 C 97 % 1000,3 hPa 0,0 l/m 0 min 0 min 0,0 UV-I 88 W/m 12,9 km/h (3 Bft)
10.03.2013 12:14 1,4 C 0,7 C 97 % 1000,3 hPa 0,0 l/m 0 min 0 min 0,0 UV-I 88 W/m 12,9 km/h (3 Bft)
10.03.2013 12:16 1,4 C 0,7 C 97 % 1000,4 hPa 0,0 l/m 0 min 0 min 0,0 UV-I 91 W/m 12,9 km/h (3 Bft)
10.03.2013 12:18 1,4 C 0,7 C 97 % 1000,4 hPa 0,0 l/m 0 min 0 min 0,0 UV-I 93 W/m 18,0 km/h (3 Bft)
10.03.2013 12:20 1,4 C 0,7 C 97 % 1000,4 hPa 0,0 l/m 0 min 0 min 0,0 UV-I 98 W/m 18,0 km/h (3 Bft)
10.03.2013 12:22 1,4 C 0,7 C 97 % 1000,4 hPa 0,0 l/m 0 min 0 min 0,0 UV-I 88 W/m 12,9 km/h (3 Bft)
10.03.2013 12:24 1,3 C 0,7 C 97 % 1000,4 hPa 0,0 l/m 0 min 0 min 0,0 UV-I 93 W/m 18,0 km/h (3 Bft)
10.03.2013 12:26 1,3 C 0,7 C 97 % 1000,6 hPa 0,0 l/m 0 min 0 min 0,0 UV-I 77 W/m 18,0 km/h (3 Bft)
10.03.2013 12:28 1,3 C 0,7 C 97 % 1000,5 hPa 0,0 l/m 0 min 0 min 0,0 UV-I 51 W/m 7,7 km/h (2 Bft)
10.03.2013 12:30 1,4 C 0,7 C 97 % 1000,5 hPa 0,0 l/m 0 min 0 min 0,0 UV-I 42 W/m 12,9 km/h (3 Bft)
10.03.2013 12:32 1,4 C 0,7 C 97 % 1000,5 hPa 0,0 l/m 0 min 0 min 0,0 UV-I 51 W/m 12,9 km/h (3 Bft)
10.03.2013 12:34 1,4 C 0,7 C 97 % 1000,5 hPa 0,0 l/m 0 min 0 min 0,0 UV-I 69 W/m 15,4 km/h (3 Bft)
10.03.2013 12:36 1,4 C 0,7 C 97 % 1000,5 hPa 0,0 l/m 0 min 0 min 0,0 UV-I 62 W/m 12,9 km/h (3 Bft)
10.03.2013 12:38 1,3 C 0,7 C 97 % 1000,5 hPa 0,0 l/m 0 min 0 min 0,0 UV-I 76 W/m 18,0 km/h (3 Bft)
10.03.2013 12:40 1,3 C 0,1 C 97 % 1000,5 hPa 0,0 l/m 0 min 0 min 0,0 UV-I 65 W/m 15,4 km/h (3 Bft)
10.03.2013 12:42 1,3 C 0,7 C 97 % 1000,6 hPa 0,0 l/m 0 min 0 min 0,0 UV-I 53 W/m 7,7 km/h (2 Bft)
10.03.2013 12:44 1,3 C 0,7 C 97 % 1000,6 hPa 0,0 l/m 0 min 0 min 0,0 UV-I 44 W/m 15,4 km/h (3 Bft)
10.03.2013 12:46 1,3 C 0,7 C 97 % 1000,6 hPa 0,0 l/m 0 min 0 min 0,0 UV-I 39 W/m 18,0 km/h (3 Bft)
10.03.2013 12:48 1,3 C 0,1 C 97 % 1000,5 hPa 0,0 l/m 0 min 0 min 0,0 UV-I 47 W/m 20,6 km/h (4 Bft)
10.03.2013 12:50 1,3 C 0,1 C 97 % 1000,5 hPa 0,0 l/m 0 min 0 min 0,0 UV-I 58 W/m 23,2 km/h (4 Bft)
10.03.2013 12:52 1,3 C 0,1 C 97 % 1000,6 hPa 0,0 l/m 0 min 0 min 0,0 UV-I 63 W/m 23,2 km/h (4 Bft)
10.03.2013 12:54 1,3 C 0,1 C 97 % 1000,6 hPa 0,0 l/m 0 min 0 min 0,0 UV-I 62 W/m 18,0 km/h (3 Bft)
10.03.2013 12:56 1,2 C 0,1 C 97 % 1000,6 hPa 0,0 l/m 0 min 0 min 0,0 UV-I 56 W/m 23,2 km/h (4 Bft)
10.03.2013 12:58 1,2 C 0,1 C 97 % 1000,7 hPa 0,0 l/m 0 min 0 min 0,0 UV-I 56 W/m 20,6 km/h (4 Bft)
10.03.2013 13:00 1,2 C 0,1 C 96 % 1000,6 hPa 0,0 l/m 0 min 0 min 0,0 UV-I 58 W/m 20,6 km/h (4 Bft)
10.03.2013 13:02 1,2 C 0,1 C 97 % 1000,5 hPa 0,0 l/m 0 min 0 min 0,0 UV-I 49 W/m 12,9 km/h (3 Bft)
10.03.2013 13:04 1,2 C 0,1 C 96 % 1000,5 hPa 0,0 l/m 0 min 0 min 0,0 UV-I 51 W/m 15,4 km/h (3 Bft)
10.03.2013 13:06 1,2 C 0,1 C 96 % 1000,5 hPa 0,0 l/m 0 min 0 min 0,0 UV-I 35 W/m 15,4 km/h (3 Bft)
10.03.2013 13:08 1,2 C 0,1 C 96 % 1000,6 hPa 0,0 l/m 0 min 0 min 0,0 UV-I 37 W/m 12,9 km/h (3 Bft)
10.03.2013 13:10 1,2 C 0,1 C 97 % 1000,6 hPa 0,0 l/m 0 min 0 min 0,0 UV-I 39 W/m 23,2 km/h (4 Bft)
10.03.2013 13:12 1,2 C 0,1 C 96 % 1000,6 hPa 0,0 l/m 0 min 0 min 0,0 UV-I 33 W/m 12,9 km/h (3 Bft)
10.03.2013 13:14 1,2 C 0,1 C 96 % 1000,7 hPa 0,0 l/m 0 min 0 min 0,0 UV-I 35 W/m 23,2 km/h (4 Bft)
10.03.2013 13:16 1,1 C 0,1 C 96 % 1000,6 hPa 0,0 l/m 0 min 0 min 0,0 UV-I 33 W/m 28,3 km/h (4 Bft)
10.03.2013 13:18 1,1 C -0,4 C 96 % 1000,7 hPa 0,0 l/m 0 min 2 min 0,0 UV-I 35 W/m 25,7 km/h (4 Bft)
10.03.2013 13:20 1,0 C -0,4 C 96 % 1000,7 hPa 0,0 l/m 0 min 0 min 0,0 UV-I 35 W/m 20,6 km/h (4 Bft)
10.03.2013 13:22 0,9 C -0,4 C 96 % 1000,7 hPa 0,0 l/m 0 min 0 min 0,0 UV-I 39 W/m 20,6 km/h (4 Bft)
10.03.2013 13:24 0,9 C -0,4 C 96 % 1000,7 hPa 0,0 l/m 0 min 2 min 0,0 UV-I 42 W/m 23,2 km/h (4 Bft)
10.03.2013 13:26 0,9 C -0,4 C 95 % 1000,7 hPa 0,0 l/m 0 min 0 min 0,0 UV-I 39 W/m 20,6 km/h (4 Bft)
10.03.2013 13:28 0,9 C -0,4 C 95 % 1000,7 hPa 0,0 l/m 0 min 2 min 0,0 UV-I 37 W/m 23,2 km/h (4 Bft)
10.03.2013 13:30 0,8 C -0,4 C 95 % 1000,6 hPa 0,0 l/m 0 min 0 min 0,0 UV-I 35 W/m 23,2 km/h (4 Bft)
10.03.2013 13:32 0,8 C -0,4 C 95 % 1000,7 hPa 0,0 l/m 0 min 0 min 0,0 UV-I 40 W/m 20,6 km/h (4 Bft)
10.03.2013 13:34 0,8 C -0,4 C 95 % 1000,7 hPa 0,0 l/m 0 min 0 min 0,0 UV-I 40 W/m 18,0 km/h (3 Bft)
10.03.2013 13:36 0,8 C -0,4 C 95 % 1000,7 hPa 0,0 l/m 0 min 0 min 0,0 UV-I 42 W/m 20,6 km/h (4 Bft)
10.03.2013 13:38 0,8 C -0,4 C 95 % 1000,7 hPa 0,0 l/m 0 min 0 min 0,0 UV-I 42 W/m 20,6 km/h (4 Bft)
10.03.2013 13:40 0,8 C -0,4 C 95 % 1000,7 hPa 0,0 l/m 0 min 0 min 0,0 UV-I 39 W/m 23,2 km/h (4 Bft)
10.03.2013 13:42 0,8 C -0,4 C 95 % 1000,7 hPa 0,0 l/m 0 min 0 min 0,0 UV-I 42 W/m 23,2 km/h (4 Bft)
10.03.2013 13:44 0,7 C -0,4 C 95 % 1000,7 hPa 0,0 l/m 0 min 0 min 0,0 UV-I 46 W/m 18,0 km/h (3 Bft)
10.03.2013 13:46 0,7 C -0,4 C 95 % 1000,7 hPa 0,0 l/m 0 min 0 min 0,0 UV-I 46 W/m 23,2 km/h (4 Bft)
10.03.2013 13:48 0,7 C -0,4 C 95 % 1000,7 hPa 0,0 l/m 0 min 0 min 0,0 UV-I 46 W/m 20,6 km/h (4 Bft)
10.03.2013 13:50 0,7 C -0,4 C 95 % 1000,8 hPa 0,0 l/m 0 min 0 min 0,0 UV-I 49 W/m 12,9 km/h (3 Bft)
10.03.2013 13:52 0,7 C -0,4 C 95 % 1000,8 hPa 0,0 l/m 0 min 0 min 0,0 UV-I 51 W/m 15,4 km/h (3 Bft)
10.03.2013 13:54 0,7 C -0,4 C 95 % 1000,8 hPa 0,0 l/m 0 min 0 min 0,0 UV-I 49 W/m 20,6 km/h (4 Bft)
10.03.2013 13:56 0,7 C -0,4 C 95 % 1000,8 hPa 0,0 l/m 0 min 0 min 0,0 UV-I 47 W/m 18,0 km/h (3 Bft)
10.03.2013 13:58 0,7 C -0,4 C 95 % 1000,8 hPa 0,0 l/m 0 min 0 min 0,0 UV-I 49 W/m 20,6 km/h (4 Bft)
10.03.2013 14:00 0,7 C -0,4 C 95 % 1000,8 hPa 0,0 l/m 0 min 0 min 0,0 UV-I 44 W/m 18,0 km/h (3 Bft)
10.03.2013 14:02 0,7 C -0,4 C 95 % 1000,8 hPa 0,0 l/m 0 min 0 min 0,0 UV-I 44 W/m 23,2 km/h (4 Bft)
10.03.2013 14:04 0,7 C -0,4 C 95 % 1000,7 hPa 0,0 l/m 0 min 0 min 0,0 UV-I 47 W/m 20,6 km/h (4 Bft)
10.03.2013 14:06 0,7 C -0,4 C 95 % 1000,7 hPa 0,0 l/m 0 min 0 min 0,0 UV-I 56 W/m 18,0 km/h (3 Bft)
10.03.2013 14:08 0,6 C -0,4 C 95 % 1000,8 hPa 0,0 l/m 0 min 0 min 0,0 UV-I 49 W/m 18,0 km/h (3 Bft)
10.03.2013 14:10 0,6 C -0,4 C 95 % 1000,8 hPa 0,0 l/m 0 min 0 min 0,0 UV-I 49 W/m 20,6 km/h (4 Bft)
10.03.2013 14:12 0,6 C -0,4 C 95 % 1000,8 hPa 0,0 l/m 0 min 0 min 0,0 UV-I 46 W/m 25,7 km/h (4 Bft)
10.03.2013 14:14 0,6 C -0,4 C 94 % 1000,8 hPa 0,0 l/m 0 min 0 min 0,0 UV-I 51 W/m 12,9 km/h (3 Bft)
10.03.2013 14:16 0,6 C -0,4 C 94 % 1000,8 hPa 0,0 l/m 0 min 0 min 0,0 UV-I 49 W/m 12,9 km/h (3 Bft)
10.03.2013 14:18 0,6 C -0,4 C 94 % 1000,8 hPa 0,0 l/m 0 min 0 min 0,0 UV-I 46 W/m 15,4 km/h (3 Bft)
10.03.2013 14:20 0,6 C -0,4 C 94 % 1000,9 hPa 0,0 l/m 0 min 0 min 0,0 UV-I 46 W/m 20,6 km/h (4 Bft)
10.03.2013 14:22 0,5 C -0,4 C 94 % 1000,9 hPa 0,0 l/m 0 min 0 min 0,0 UV-I 46 W/m 20,6 km/h (4 Bft)
10.03.2013 14:24 0,5 C -1,0 C 94 % 1000,9 hPa 0,0 l/m 0 min 0 min 0,0 UV-I 44 W/m 23,2 km/h (4 Bft)
10.03.2013 14:26 0,5 C -1,0 C 94 % 1000,9 hPa 0,0 l/m 0 min 2 min 0,0 UV-I 44 W/m 30,9 km/h (5 Bft)
10.03.2013 14:28 0,4 C -1,0 C 94 % 1000,9 hPa 0,0 l/m 0 min 2 min 0,0 UV-I 46 W/m 18,0 km/h (3 Bft)
10.03.2013 14:30 0,4 C -0,4 C 94 % 1000,9 hPa 0,0 l/m 0 min 0 min 0,0 UV-I 47 W/m 15,4 km/h (3 Bft)
10.03.2013 14:32 0,4 C -0,4 C 94 % 1000,9 hPa 0,0 l/m 0 min 0 min 0,0 UV-I 44 W/m 23,2 km/h (4 Bft)
10.03.2013 14:34 0,4 C -1,0 C 94 % 1001,0 hPa 0,0 l/m 0 min 0 min 0,0 UV-I 46 W/m 25,7 km/h (4 Bft)
10.03.2013 14:36 0,4 C -1,0 C 94 % 1001,0 hPa 0,0 l/m 0 min 0 min 0,0 UV-I 44 W/m 25,7 km/h (4 Bft)
10.03.2013 14:38 0,4 C -1,0 C 94 % 1000,9 hPa 0,0 l/m 0 min 0 min 0,0 UV-I 42 W/m 20,6 km/h (4 Bft)
10.03.2013 14:40 0,4 C -1,0 C 94 % 1000,9 hPa 0,0 l/m 0 min 0 min 0,0 UV-I 42 W/m 20,6 km/h (4 Bft)
10.03.2013 14:42 0,3 C -1,0 C 94 % 1001,0 hPa 0,0 l/m 0 min 0 min 0,0 UV-I 39 W/m 25,7 km/h (4 Bft)
10.03.2013 14:44 0,4 C -0,4 C 94 % 1001,0 hPa 0,0 l/m 0 min 0 min 0,0 UV-I 39 W/m 12,9 km/h (3 Bft)
10.03.2013 14:46 0,4 C -0,4 C 94 % 1001,0 hPa 0,0 l/m 0 min 0 min 0,0 UV-I 37 W/m 12,9 km/h (3 Bft)
10.03.2013 14:48 0,4 C -1,0 C 94 % 1001,0 hPa 0,0 l/m 0 min 0 min 0,0 UV-I 42 W/m 30,9 km/h (5 Bft)
10.03.2013 14:50 0,4 C -1,0 C 94 % 1001,1 hPa 0,0 l/m 0 min 0 min 0,0 UV-I 39 W/m 20,6 km/h (4 Bft)
10.03.2013 14:52 0,3 C -1,0 C 94 % 1001,1 hPa 0,0 l/m 0 min 0 min 0,0 UV-I 35 W/m 23,2 km/h (4 Bft)
10.03.2013 14:54 0,3 C -1,0 C 94 % 1001,2 hPa 0,0 l/m 0 min 0 min 0,0 UV-I 35 W/m 18,0 km/h (3 Bft)
10.03.2013 14:56 0,3 C -1,0 C 94 % 1001,2 hPa 0,0 l/m 0 min 0 min 0,0 UV-I 35 W/m 12,9 km/h (3 Bft)
10.03.2013 14:58 0,3 C -0,4 C 94 % 1001,2 hPa 0,0 l/m 0 min 0 min 0,0 UV-I 35 W/m 10,3 km/h (2 Bft)
10.03.2013 15:00 0,4 C -0,4 C 94 % 1001,2 hPa 0,0 l/m 0 min 0 min 0,0 UV-I 37 W/m 12,9 km/h (3 Bft)
10.03.2013 15:02 0,4 C -1,0 C 94 % 1001,2 hPa 0,0 l/m 0 min 0 min 0,0 UV-I 42 W/m 20,6 km/h (4 Bft)
10.03.2013 15:04 0,3 C -1,0 C 94 % 1001,3 hPa 0,0 l/m 0 min 0 min 0,0 UV-I 40 W/m 15,4 km/h (3 Bft)
10.03.2013 15:06 0,3 C -1,0 C 94 % 1001,3 hPa 0,0 l/m 0 min 0 min 0,0 UV-I 33 W/m 20,6 km/h (4 Bft)
10.03.2013 15:08 0,3 C -1,0 C 94 % 1001,3 hPa 0,0 l/m 0 min 0 min 0,0 UV-I 32 W/m 18,0 km/h (3 Bft)
10.03.2013 15:10 0,3 C -1,0 C 94 % 1001,4 hPa 0,0 l/m 0 min 0 min 0,0 UV-I 30 W/m 15,4 km/h (3 Bft)
10.03.2013 15:12 0,3 C -1,0 C 93 % 1001,5 hPa 0,0 l/m 0 min 0 min 0,0 UV-I 33 W/m 15,4 km/h (3 Bft)
10.03.2013 15:14 0,3 C -1,0 C 94 % 1001,4 hPa 0,0 l/m 0 min 0 min 0,0 UV-I 33 W/m 18,0 km/h (3 Bft)
10.03.2013 15:16 0,3 C -1,0 C 94 % 1001,4 hPa 0,0 l/m 0 min 0 min 0,0 UV-I 35 W/m 15,4 km/h (3 Bft)
10.03.2013 15:18 0,3 C -1,0 C 94 % 1001,4 hPa 0,0 l/m 0 min 0 min 0,0 UV-I 35 W/m 20,6 km/h (4 Bft)
10.03.2013 15:20 0,3 C -1,0 C 93 % 1001,4 hPa 0,0 l/m 0 min 0 min 0,0 UV-I 35 W/m 18,0 km/h (3 Bft)
10.03.2013 15:22 0,3 C -1,0 C 93 % 1001,5 hPa 0,0 l/m 0 min 0 min 0,0 UV-I 40 W/m 15,4 km/h (3 Bft)
10.03.2013 15:24 0,3 C -1,0 C 93 % 1001,5 hPa 0,0 l/m 0 min 0 min 0,0 UV-I 39 W/m 23,2 km/h (4 Bft)
10.03.2013 15:26 0,3 C -1,0 C 93 % 1001,6 hPa 0,0 l/m 0 min 0 min 0,0 UV-I 35 W/m 20,6 km/h (4 Bft)
10.03.2013 15:28 0,3 C -1,0 C 93 % 1001,6 hPa 0,0 l/m 0 min 0 min 0,0 UV-I 32 W/m 18,0 km/h (3 Bft)
10.03.2013 15:30 0,3 C -1,0 C 93 % 1001,6 hPa 0,0 l/m 0 min 0 min 0,0 UV-I 32 W/m 12,9 km/h (3 Bft)
10.03.2013 15:32 0,3 C -1,0 C 93 % 1001,6 hPa 0,0 l/m 0 min 0 min 0,0 UV-I 30 W/m 18,0 km/h (3 Bft)
10.03.2013 15:34 0,3 C -1,0 C 93 % 1001,6 hPa 0,0 l/m 0 min 0 min 0,0 UV-I 26 W/m 23,2 km/h (4 Bft)
10.03.2013 15:36 0,3 C -1,0 C 93 % 1001,7 hPa 0,0 l/m 0 min 0 min 0,0 UV-I 28 W/m 20,6 km/h (4 Bft)
10.03.2013 15:38 0,3 C -0,4 C 93 % 1001,6 hPa 0,0 l/m 0 min 0 min 0,0 UV-I 28 W/m 18,0 km/h (3 Bft)
10.03.2013 15:40 0,3 C -0,4 C 93 % 1001,6 hPa 0,0 l/m 0 min 0 min 0,0 UV-I 26 W/m 15,4 km/h (3 Bft)
10.03.2013 15:42 0,3 C -0,4 C 93 % 1001,7 hPa 0,0 l/m 0 min 0 min 0,0 UV-I 25 W/m 15,4 km/h (3 Bft)
10.03.2013 15:44 0,3 C -0,4 C 93 % 1001,6 hPa 0,0 l/m 0 min 0 min 0,0 UV-I 25 W/m 23,2 km/h (4 Bft)
10.03.2013 15:46 0,3 C -0,4 C 93 % 1001,6 hPa 0,0 l/m 0 min 0 min 0,0 UV-I 23 W/m 15,4 km/h (3 Bft)
10.03.2013 15:48 0,3 C -0,4 C 93 % 1001,7 hPa 0,0 l/m 0 min 2 min 0,0 UV-I 23 W/m 23,2 km/h (4 Bft)
10.03.2013 15:50 0,3 C -1,0 C 92 % 1001,7 hPa 0,0 l/m 0 min 0 min 0,0 UV-I 23 W/m 23,2 km/h (4 Bft)
10.03.2013 15:52 0,2 C -0,4 C 92 % 1001,7 hPa 0,0 l/m 0 min 0 min 0,0 UV-I 23 W/m 20,6 km/h (4 Bft)
10.03.2013 15:54 0,2 C -0,4 C 92 % 1001,7 hPa 0,0 l/m 0 min 0 min 0,0 UV-I 25 W/m 15,4 km/h (3 Bft)
10.03.2013 15:56 0,2 C -0,4 C 92 % 1001,7 hPa 0,0 l/m 0 min 0 min 0,0 UV-I 23 W/m 18,0 km/h (3 Bft)
10.03.2013 15:58 0,2 C -0,4 C 92 % 1001,8 hPa 0,0 l/m 0 min 0 min 0,0 UV-I 23 W/m 18,0 km/h (3 Bft)
10.03.2013 16:00 0,2 C -1,0 C 92 % 1001,8 hPa 0,0 l/m 0 min 0 min 0,0 UV-I 25 W/m 30,9 km/h (5 Bft)
10.03.2013 16:02 0,2 C -1,0 C 92 % 1001,8 hPa 0,0 l/m 0 min 0 min 0,0 UV-I 25 W/m 23,2 km/h (4 Bft)
10.03.2013 16:04 0,2 C -1,0 C 92 % 1001,8 hPa 0,0 l/m 0 min 0 min 0,0 UV-I 23 W/m 15,4 km/h (3 Bft)
10.03.2013 16:06 0,2 C -1,0 C 92 % 1001,8 hPa 0,0 l/m 0 min 0 min 0,0 UV-I 19 W/m 15,4 km/h (3 Bft)
10.03.2013 16:08 0,2 C -0,4 C 92 % 1001,8 hPa 0,0 l/m 0 min 0 min 0,0 UV-I 19 W/m 15,4 km/h (3 Bft)
10.03.2013 16:10 0,1 C -0,4 C 92 % 1001,8 hPa 0,0 l/m 0 min 0 min 0,0 UV-I 19 W/m 15,4 km/h (3 Bft)
10.03.2013 16:12 0,2 C -0,4 C 92 % 1001,8 hPa 0,0 l/m 0 min 0 min 0,0 UV-I 21 W/m 12,9 km/h (3 Bft)
10.03.2013 16:14 0,2 C -0,4 C 92 % 1001,8 hPa 0,0 l/m 0 min 0 min 0,0 UV-I 21 W/m 23,2 km/h (4 Bft)
10.03.2013 16:16 0,1 C -0,4 C 92 % 1001,8 hPa 0,0 l/m 0 min 0 min 0,0 UV-I 18 W/m 12,9 km/h (3 Bft)
10.03.2013 16:18 0,1 C -0,4 C 92 % 1001,8 hPa 0,0 l/m 0 min 0 min 0,0 UV-I 19 W/m 12,9 km/h (3 Bft)
10.03.2013 16:20 0,2 C -0,4 C 92 % 1001,9 hPa 0,0 l/m 0 min 0 min 0,0 UV-I 21 W/m 18,0 km/h (3 Bft)
10.03.2013 16:22 0,2 C -0,4 C 92 % 1001,9 hPa 0,0 l/m 0 min 0 min 0,0 UV-I 23 W/m 15,4 km/h (3 Bft)
10.03.2013 16:24 0,1 C -1,0 C 92 % 1001,9 hPa 0,0 l/m 0 min 0 min 0,0 UV-I 21 W/m 20,6 km/h (4 Bft)
10.03.2013 16:26 0,1 C -1,0 C 92 % 1001,9 hPa 0,0 l/m 0 min 0 min 0,0 UV-I 21 W/m 15,4 km/h (3 Bft)
10.03.2013 16:28 0,1 C -1,0 C 92 % 1002,0 hPa 0,0 l/m 0 min 0 min 0,0 UV-I 19 W/m 18,0 km/h (3 Bft)
10.03.2013 16:30 0,1 C -1,0 C 92 % 1002,0 hPa 0,0 l/m 0 min 0 min 0,0 UV-I 19 W/m 18,0 km/h (3 Bft)
10.03.2013 16:32 0,1 C -1,0 C 92 % 1002,0 hPa 0,0 l/m 0 min 0 min 0,0 UV-I 18 W/m 18,0 km/h (3 Bft)
10.03.2013 16:34 0,1 C -1,0 C 92 % 1002,0 hPa 0,0 l/m 0 min 0 min 0,0 UV-I 16 W/m 20,6 km/h (4 Bft)
10.03.2013 16:36 0,0 C -1,0 C 92 % 1002,1 hPa 0,0 l/m 0 min 0 min 0,0 UV-I 16 W/m 20,6 km/h (4 Bft)
10.03.2013 16:38 0,0 C -1,0 C 92 % 1002,1 hPa 0,0 l/m 0 min 0 min 0,0 UV-I 14 W/m 18,0 km/h (3 Bft)
10.03.2013 16:40 0,0 C -1,0 C 92 % 1002,1 hPa 0,0 l/m 0 min 0 min 0,0 UV-I 16 W/m 15,4 km/h (3 Bft)
10.03.2013 16:42 0,0 C -1,0 C 92 % 1002,1 hPa 0,0 l/m 0 min 0 min 0,0 UV-I 16 W/m 23,2 km/h (4 Bft)
10.03.2013 16:44 0,0 C -1,0 C 92 % 1002,2 hPa 0,0 l/m 0 min 0 min 0,0 UV-I 16 W/m 12,9 km/h (3 Bft)
10.03.2013 16:46 0,0 C -1,0 C 92 % 1002,1 hPa 0,0 l/m 0 min 0 min 0,0 UV-I 16 W/m 23,2 km/h (4 Bft)
10.03.2013 16:48 0,0 C -1,0 C 92 % 1002,1 hPa 0,0 l/m 0 min 0 min 0,0 UV-I 14 W/m 20,6 km/h (4 Bft)
10.03.2013 16:50 0,0 C -1,0 C 92 % 1002,1 hPa 0,0 l/m 0 min 0 min 0,0 UV-I 14 W/m 23,2 km/h (4 Bft)
10.03.2013 16:52 -0,1 C -1,0 C 92 % 1002,1 hPa 0,0 l/m 0 min 0 min 0,0 UV-I 14 W/m 15,4 km/h (3 Bft)
10.03.2013 16:54 0,0 C -1,0 C 92 % 1002,1 hPa 0,0 l/m 0 min 0 min 0,0 UV-I 16 W/m 12,9 km/h (3 Bft)
10.03.2013 16:56 0,0 C -1,0 C 92 % 1002,2 hPa 0,0 l/m 0 min 0 min 0,0 UV-I 16 W/m 12,9 km/h (3 Bft)
10.03.2013 16:58 -0,1 C -1,0 C 92 % 1002,2 hPa 0,0 l/m 0 min 0 min 0,0 UV-I 16 W/m 18,0 km/h (3 Bft)
10.03.2013 17:00 -0,1 C -1,0 C 92 % 1002,2 hPa 0,0 l/m 0 min 0 min 0,0 UV-I 14 W/m 15,4 km/h (3 Bft)
10.03.2013 17:02 -0,1 C -1,0 C 92 % 1002,2 hPa 0,0 l/m 0 min 0 min 0,0 UV-I 14 W/m 18,0 km/h (3 Bft)
10.03.2013 17:04 -0,1 C -1,0 C 92 % 1002,2 hPa 0,0 l/m 0 min 0 min 0,0 UV-I 12 W/m 12,9 km/h (3 Bft)
10.03.2013 17:06 -0,1 C -1,0 C 92 % 1002,2 hPa 0,0 l/m 0 min 0 min 0,0 UV-I 12 W/m 23,2 km/h (4 Bft)
10.03.2013 17:08 -0,1 C -1,0 C 92 % 1002,2 hPa 0,0 l/m 0 min 0 min 0,0 UV-I 12 W/m 25,7 km/h (4 Bft)
10.03.2013 17:10 -0,1 C -1,0 C 91 % 1002,2 hPa 0,0 l/m 0 min 0 min 0,0 UV-I 12 W/m 18,0 km/h (3 Bft)
10.03.2013 17:12 -0,1 C -1,0 C 91 % 1002,2 hPa 0,0 l/m 0 min 0 min 0,0 UV-I 12 W/m 15,4 km/h (3 Bft)
10.03.2013 17:14 -0,1 C -1,0 C 91 % 1002,3 hPa 0,0 l/m 0 min 0 min 0,0 UV-I 11 W/m 18,0 km/h (3 Bft)
10.03.2013 17:16 -0,1 C -1,0 C 91 % 1002,3 hPa 0,0 l/m 0 min 0 min 0,0 UV-I 9 W/m 18,0 km/h (3 Bft)
10.03.2013 17:18 -0,1 C -1,0 C 91 % 1002,3 hPa 0,0 l/m 0 min 0 min 0,0 UV-I 9 W/m 15,4 km/h (3 Bft)
10.03.2013 17:20 -0,1 C -1,0 C 91 % 1002,3 hPa 0,0 l/m 0 min 0 min 0,0 UV-I 9 W/m 15,4 km/h (3 Bft)
10.03.2013 17:22 -0,1 C -1,0 C 91 % 1002,3 hPa 0,0 l/m 0 min 0 min 0,0 UV-I 9 W/m 15,4 km/h (3 Bft)
10.03.2013 17:24 -0,1 C -1,0 C 91 % 1002,3 hPa 0,0 l/m 0 min 0 min 0,0 UV-I 7 W/m 12,9 km/h (3 Bft)
10.03.2013 17:26 -0,1 C -1,0 C 91 % 1002,3 hPa 0,0 l/m 0 min 0 min 0,0 UV-I 7 W/m 20,6 km/h (4 Bft)
10.03.2013 17:28 -0,1 C -1,0 C 91 % 1002,3 hPa 0,0 l/m 0 min 0 min 0,0 UV-I 7 W/m 12,9 km/h (3 Bft)
10.03.2013 17:30 -0,1 C -1,0 C 91 % 1002,4 hPa 0,0 l/m 0 min 0 min 0,0 UV-I 7 W/m 15,4 km/h (3 Bft)
10.03.2013 17:32 -0,1 C -1,0 C 91 % 1002,4 hPa 0,0 l/m 0 min 0 min 0,0 UV-I 7 W/m 15,4 km/h (3 Bft)
10.03.2013 17:34 -0,1 C -1,0 C 91 % 1002,4 hPa 0,0 l/m 0 min 0 min 0,0 UV-I 5 W/m 15,4 km/h (3 Bft)
10.03.2013 17:36 -0,1 C -1,0 C 91 % 1002,4 hPa 0,0 l/m 0 min 0 min 0,0 UV-I 5 W/m 12,9 km/h (3 Bft)
10.03.2013 17:38 -0,1 C -1,0 C 91 % 1002,4 hPa 0,0 l/m 0 min 0 min 0,0 UV-I 5 W/m 15,4 km/h (3 Bft)
10.03.2013 17:40 -0,1 C -1,0 C 91 % 1002,4 hPa 0,0 l/m 0 min 0 min 0,0 UV-I 5 W/m 10,3 km/h (2 Bft)
10.03.2013 17:42 -0,1 C -1,0 C 91 % 1002,5 hPa 0,0 l/m 0 min 0 min 0,0 UV-I 5 W/m 20,6 km/h (4 Bft)
10.03.2013 17:44 -0,1 C -1,0 C 91 % 1002,5 hPa 0,0 l/m 0 min 0 min 0,0 UV-I 5 W/m 18,0 km/h (3 Bft)
10.03.2013 17:46 -0,1 C -1,0 C 91 % 1002,5 hPa 0,0 l/m 0 min 0 min 0,0 UV-I 5 W/m 15,4 km/h (3 Bft)
10.03.2013 17:48 -0,1 C -1,0 C 91 % 1002,5 hPa 0,0 l/m 0 min 0 min 0,0 UV-I 5 W/m 15,4 km/h (3 Bft)
10.03.2013 17:50 -0,1 C -1,0 C 91 % 1002,6 hPa 0,0 l/m 0 min 0 min 0,0 UV-I 0 W/m 18,0 km/h (3 Bft)
10.03.2013 17:52 -0,1 C -1,0 C 91 % 1002,6 hPa 0,0 l/m 0 min 0 min 0,0 UV-I 0 W/m 15,4 km/h (3 Bft)
10.03.2013 17:54 -0,1 C -1,0 C 91 % 1002,5 hPa 0,0 l/m 0 min 0 min 0,0 UV-I 0 W/m 20,6 km/h (4 Bft)
10.03.2013 17:56 -0,1 C -1,0 C 90 % 1002,6 hPa 0,0 l/m 0 min 0 min 0,0 UV-I 0 W/m 18,0 km/h (3 Bft)
10.03.2013 17:58 -0,1 C -1,0 C 90 % 1002,5 hPa 0,0 l/m 0 min 0 min 0,0 UV-I 0 W/m 20,6 km/h (4 Bft)
10.03.2013 18:00 -0,1 C -1,0 C 90 % 1002,5 hPa 0,0 l/m 0 min 0 min 0,0 UV-I 0 W/m 10,3 km/h (2 Bft)
10.03.2013 18:02 -0,1 C -1,0 C 90 % 1002,6 hPa 0,0 l/m 0 min 0 min 0,0 UV-I 0 W/m 15,4 km/h (3 Bft)
10.03.2013 18:04 -0,1 C -1,0 C 90 % 1002,6 hPa 0,0 l/m 0 min 0 min 0,0 UV-I 0 W/m 15,4 km/h (3 Bft)
10.03.2013 18:06 -0,1 C -1,0 C 90 % 1002,6 hPa 0,0 l/m 0 min 0 min 0,0 UV-I 0 W/m 10,3 km/h (2 Bft)
10.03.2013 18:08 -0,1 C -1,0 C 91 % 1002,6 hPa 0,0 l/m 0 min 0 min 0,0 UV-I 0 W/m 15,4 km/h (3 Bft)
10.03.2013 18:10 -0,1 C -1,0 C 91 % 1002,6 hPa 0,0 l/m 0 min 0 min 0,0 UV-I 0 W/m 12,9 km/h (3 Bft)
10.03.2013 18:12 -0,1 C -1,0 C 91 % 1002,6 hPa 0,0 l/m 0 min 0 min 0,0 UV-I 0 W/m 12,9 km/h (3 Bft)
10.03.2013 18:14 -0,1 C -1,0 C 91 % 1002,5 hPa 0,0 l/m 0 min 0 min 0,0 UV-I 0 W/m 18,0 km/h (3 Bft)
10.03.2013 18:16 -0,1 C -1,0 C 91 % 1002,6 hPa 0,0 l/m 0 min 0 min 0,0 UV-I 0 W/m 15,4 km/h (3 Bft)
10.03.2013 18:18 -0,1 C -1,0 C 91 % 1002,6 hPa 0,0 l/m 0 min 0 min 0,0 UV-I 0 W/m 12,9 km/h (3 Bft)
10.03.2013 18:20 -0,1 C -1,0 C 91 % 1002,6 hPa 0,0 l/m 0 min 0 min 0,0 UV-I 0 W/m 25,7 km/h (4 Bft)
10.03.2013 18:22 -0,2 C -1,0 C 91 % 1002,7 hPa 0,0 l/m 0 min 0 min 0,0 UV-I 0 W/m 18,0 km/h (3 Bft)
10.03.2013 18:24 -0,2 C -1,0 C 91 % 1002,7 hPa 0,0 l/m 0 min 0 min 0,0 UV-I 0 W/m 23,2 km/h (4 Bft)
10.03.2013 18:26 -0,2 C -1,0 C 91 % 1002,7 hPa 0,0 l/m 0 min 0 min 0,0 UV-I 0 W/m 18,0 km/h (3 Bft)
10.03.2013 18:28 -0,2 C -1,0 C 91 % 1002,7 hPa 0,0 l/m 0 min 0 min 0,0 UV-I 0 W/m 15,4 km/h (3 Bft)
10.03.2013 18:30 -0,2 C -1,0 C 91 % 1002,7 hPa 0,0 l/m 0 min 0 min 0,0 UV-I 0 W/m 23,2 km/h (4 Bft)
10.03.2013 18:32 -0,2 C -1,0 C 91 % 1002,7 hPa 0,0 l/m 0 min 0 min 0,0 UV-I 0 W/m 12,9 km/h (3 Bft)
10.03.2013 18:34 -0,2 C -1,0 C 91 % 1002,7 hPa 0,0 l/m 0 min 0 min 0,0 UV-I 0 W/m 15,4 km/h (3 Bft)
10.03.2013 18:36 -0,2 C -1,0 C 91 % 1002,8 hPa 0,0 l/m 0 min 0 min 0,0 UV-I 0 W/m 18,0 km/h (3 Bft)
10.03.2013 18:38 -0,2 C -1,0 C 91 % 1002,8 hPa 0,0 l/m 0 min 0 min 0,0 UV-I 0 W/m 15,4 km/h (3 Bft)
10.03.2013 18:40 -0,2 C -1,0 C 91 % 1002,8 hPa 0,0 l/m 0 min 0 min 0,0 UV-I 0 W/m 15,4 km/h (3 Bft)
10.03.2013 18:42 -0,2 C -1,0 C 91 % 1002,9 hPa 0,0 l/m 0 min 0 min 0,0 UV-I 0 W/m 10,3 km/h (2 Bft)
10.03.2013 18:44 -0,2 C -1,0 C 91 % 1003,0 hPa 0,0 l/m 0 min 0 min 0,0 UV-I 0 W/m 7,7 km/h (2 Bft)
10.03.2013 18:46 -0,2 C -1,0 C 91 % 1003,0 hPa 0,0 l/m 0 min 0 min 0,0 UV-I 0 W/m 12,9 km/h (3 Bft)
10.03.2013 18:48 -0,2 C -1,0 C 91 % 1003,2 hPa 0,0 l/m 0 min 0 min 0,0 UV-I 0 W/m 12,9 km/h (3 Bft)
10.03.2013 18:50 -0,2 C -1,0 C 91 % 1003,2 hPa 0,0 l/m 0 min 0 min 0,0 UV-I 0 W/m 15,4 km/h (3 Bft)
10.03.2013 18:52 -0,2 C -1,0 C 91 % 1003,3 hPa 0,0 l/m 0 min 0 min 0,0 UV-I 0 W/m 10,3 km/h (2 Bft)
10.03.2013 18:54 -0,2 C -1,0 C 91 % 1003,3 hPa 0,0 l/m 0 min 0 min 0,0 UV-I 0 W/m 15,4 km/h (3 Bft)
10.03.2013 18:56 -0,3 C -1,0 C 91 % 1003,3 hPa 0,0 l/m 0 min 0 min 0,0 UV-I 0 W/m 20,6 km/h (4 Bft)
10.03.2013 18:58 -0,3 C -1,0 C 91 % 1003,4 hPa 0,0 l/m 0 min 0 min 0,0 UV-I 0 W/m 18,0 km/h (3 Bft)
10.03.2013 19:00 -0,3 C -1,0 C 91 % 1003,4 hPa 0,0 l/m 0 min 0 min 0,0 UV-I 0 W/m 12,9 km/h (3 Bft)
10.03.2013 19:02 -0,3 C -1,0 C 91 % 1003,3 hPa 0,0 l/m 0 min 0 min 0,0 UV-I 0 W/m 18,0 km/h (3 Bft)
10.03.2013 19:04 -0,3 C -1,0 C 91 % 1003,3 hPa 0,0 l/m 0 min 0 min 0,0 UV-I 0 W/m 15,4 km/h (3 Bft)
10.03.2013 19:06 -0,3 C -1,0 C 91 % 1003,3 hPa 0,0 l/m 0 min 0 min 0,0 UV-I 0 W/m 10,3 km/h (2 Bft)
10.03.2013 19:08 -0,3 C -1,0 C 91 % 1003,4 hPa 0,0 l/m 0 min 0 min 0,0 UV-I 0 W/m 20,6 km/h (4 Bft)
10.03.2013 19:10 -0,3 C -1,0 C 91 % 1003,4 hPa 0,0 l/m 0 min 0 min 0,0 UV-I 0 W/m 18,0 km/h (3 Bft)
10.03.2013 19:12 -0,3 C -1,0 C 91 % 1003,5 hPa 0,0 l/m 0 min 0 min 0,0 UV-I 0 W/m 15,4 km/h (3 Bft)
10.03.2013 19:14 -0,3 C -1,0 C 91 % 1003,4 hPa 0,0 l/m 0 min 0 min 0,0 UV-I 0 W/m 15,4 km/h (3 Bft)
10.03.2013 19:16 -0,3 C -1,0 C 91 % 1003,4 hPa 0,0 l/m 0 min 0 min 0,0 UV-I 0 W/m 20,6 km/h (4 Bft)
10.03.2013 19:18 -0,3 C -1,0 C 91 % 1003,5 hPa 0,0 l/m 0 min 0 min 0,0 UV-I 0 W/m 18,0 km/h (3 Bft)
10.03.2013 19:20 -0,3 C -1,0 C 91 % 1003,4 hPa 0,0 l/m 0 min 0 min 0,0 UV-I 0 W/m 15,4 km/h (3 Bft)
10.03.2013 19:22 -0,3 C -1,0 C 91 % 1003,5 hPa 0,0 l/m 0 min 0 min 0,0 UV-I 0 W/m 18,0 km/h (3 Bft)
10.03.2013 19:24 -0,3 C -1,0 C 90 % 1003,5 hPa 0,0 l/m 0 min 0 min 0,0 UV-I 0 W/m 12,9 km/h (3 Bft)
10.03.2013 19:26 -0,3 C -1,0 C 90 % 1003,5 hPa 0,0 l/m 0 min 0 min 0,0 UV-I 0 W/m 12,9 km/h (3 Bft)
10.03.2013 19:28 -0,3 C -1,0 C 90 % 1003,5 hPa 0,0 l/m 0 min 0 min 0,0 UV-I 0 W/m 15,4 km/h (3 Bft)
10.03.2013 19:30 -0,3 C -1,0 C 90 % 1003,5 hPa 0,0 l/m 0 min 0 min 0,0 UV-I 0 W/m 15,4 km/h (3 Bft)
10.03.2013 19:32 -0,3 C -1,0 C 90 % 1003,5 hPa 0,0 l/m 0 min 0 min 0,0 UV-I 0 W/m 18,0 km/h (3 Bft)
10.03.2013 19:34 -0,3 C -1,0 C 90 % 1003,5 hPa 0,0 l/m 0 min 0 min 0,0 UV-I 0 W/m 12,9 km/h (3 Bft)
10.03.2013 19:36 -0,3 C -1,0 C 90 % 1003,6 hPa 0,0 l/m 0 min 0 min 0,0 UV-I 0 W/m 15,4 km/h (3 Bft)
10.03.2013 19:38 -0,3 C -1,0 C 90 % 1003,6 hPa 0,0 l/m 0 min 0 min 0,0 UV-I 0 W/m 12,9 km/h (3 Bft)
10.03.2013 19:40 -0,3 C -1,0 C 90 % 1003,6 hPa 0,0 l/m 0 min 0 min 0,0 UV-I 0 W/m 7,7 km/h (2 Bft)
10.03.2013 19:42 -0,3 C -1,0 C 90 % 1003,7 hPa 0,0 l/m 0 min 0 min 0,0 UV-I 0 W/m 7,7 km/h (2 Bft)
10.03.2013 19:44 -0,3 C -1,0 C 90 % 1003,7 hPa 0,0 l/m 0 min 0 min 0,0 UV-I 0 W/m 5,1 km/h (1 Bft)
10.03.2013 19:46 -0,2 C -1,0 C 90 % 1003,7 hPa 0,0 l/m 0 min 0 min 0,0 UV-I 0 W/m 10,3 km/h (2 Bft)
10.03.2013 19:48 -0,3 C -1,0 C 90 % 1003,8 hPa 0,0 l/m 0 min 0 min 0,0 UV-I 0 W/m 7,7 km/h (2 Bft)
10.03.2013 19:50 -0,2 C -1,0 C 90 % 1003,9 hPa 0,0 l/m 0 min 0 min 0,0 UV-I 0 W/m 10,3 km/h (2 Bft)
10.03.2013 19:52 -0,2 C -1,0 C 90 % 1003,8 hPa 0,0 l/m 0 min 0 min 0,0 UV-I 0 W/m 2,6 km/h (1 Bft)
10.03.2013 19:54 -0,2 C -1,0 C 90 % 1003,8 hPa 0,0 l/m 0 min 0 min 0,0 UV-I 0 W/m 10,3 km/h (2 Bft)
10.03.2013 19:56 -0,2 C -1,0 C 90 % 1003,8 hPa 0,0 l/m 0 min 0 min 0,0 UV-I 0 W/m 10,3 km/h (2 Bft)
10.03.2013 19:58 -0,2 C -1,0 C 90 % 1003,8 hPa 0,0 l/m 0 min 0 min 0,0 UV-I 0 W/m 7,7 km/h (2 Bft)
10.03.2013 20:00 -0,2 C -1,0 C 90 % 1003,9 hPa 0,0 l/m 0 min 0 min 0,0 UV-I 0 W/m 7,7 km/h (2 Bft)
10.03.2013 20:02 -0,2 C -1,0 C 90 % 1003,9 hPa 0,0 l/m 0 min 0 min 0,0 UV-I 0 W/m 10,3 km/h (2 Bft)
10.03.2013 20:04 -0,2 C -1,0 C 90 % 1003,9 hPa 0,0 l/m 0 min 0 min 0,0 UV-I 0 W/m 10,3 km/h (2 Bft)
10.03.2013 20:06 -0,2 C -1,0 C 90 % 1004,0 hPa 0,0 l/m 0 min 0 min 0,0 UV-I 0 W/m 10,3 km/h (2 Bft)
10.03.2013 20:08 -0,2 C -1,0 C 90 % 1004,0 hPa 0,0 l/m 0 min 0 min 0,0 UV-I 0 W/m 12,9 km/h (3 Bft)
10.03.2013 20:10 -0,2 C -1,0 C 90 % 1003,9 hPa 0,0 l/m 0 min 0 min 0,0 UV-I 0 W/m 20,6 km/h (4 Bft)
10.03.2013 20:12 -0,2 C -1,0 C 90 % 1003,9 hPa 0,0 l/m 0 min 0 min 0,0 UV-I 0 W/m 18,0 km/h (3 Bft)
10.03.2013 20:14 -0,2 C -1,0 C 89 % 1003,9 hPa 0,0 l/m 0 min 0 min 0,0 UV-I 0 W/m 15,4 km/h (3 Bft)
10.03.2013 20:16 -0,2 C -1,0 C 89 % 1004,0 hPa 0,0 l/m 0 min 0 min 0,0 UV-I 0 W/m 23,2 km/h (4 Bft)
10.03.2013 20:18 -0,3 C -1,0 C 89 % 1004,0 hPa 0,0 l/m 0 min 0 min 0,0 UV-I 0 W/m 15,4 km/h (3 Bft)
10.03.2013 20:20 -0,3 C -1,0 C 89 % 1004,0 hPa 0,0 l/m 0 min 0 min 0,0 UV-I 0 W/m 12,9 km/h (3 Bft)
10.03.2013 20:22 -0,3 C -1,0 C 89 % 1004,0 hPa 0,0 l/m 0 min 0 min 0,0 UV-I 0 W/m 15,4 km/h (3 Bft)
10.03.2013 20:24 -0,3 C -1,0 C 89 % 1004,0 hPa 0,0 l/m 0 min 0 min 0,0 UV-I 0 W/m 15,4 km/h (3 Bft)
10.03.2013 20:26 -0,3 C -1,0 C 89 % 1004,0 hPa 0,0 l/m 0 min 0 min 0,0 UV-I 0 W/m 10,3 km/h (2 Bft)
10.03.2013 20:28 -0,3 C -1,0 C 90 % 1003,9 hPa 0,0 l/m 0 min 0 min 0,0 UV-I 0 W/m 5,1 km/h (1 Bft)
10.03.2013 20:30 -0,3 C -1,0 C 90 % 1003,9 hPa 0,0 l/m 0 min 0 min 0,0 UV-I 0 W/m 12,9 km/h (3 Bft)
10.03.2013 20:32 -0,3 C -1,0 C 89 % 1003,9 hPa 0,0 l/m 0 min 0 min 0,0 UV-I 0 W/m 7,7 km/h (2 Bft)
10.03.2013 20:34 -0,3 C -1,0 C 89 % 1003,9 hPa 0,0 l/m 0 min 0 min 0,0 UV-I 0 W/m 5,1 km/h (1 Bft)
10.03.2013 20:36 -0,3 C -1,0 C 90 % 1003,9 hPa 0,0 l/m 0 min 0 min 0,0 UV-I 0 W/m 0,0 km/h (0 Bft)
10.03.2013 20:38 -0,3 C -1,0 C 90 % 1004,0 hPa 0,0 l/m 0 min 0 min 0,0 UV-I 0 W/m 10,3 km/h (2 Bft)
10.03.2013 20:40 -0,3 C -1,0 C 90 % 1003,9 hPa 0,0 l/m 0 min 0 min 0,0 UV-I 0 W/m 7,7 km/h (2 Bft)
10.03.2013 20:42 -0,3 C -1,0 C 89 % 1003,9 hPa 0,0 l/m 0 min 0 min 0,0 UV-I 0 W/m 7,7 km/h (2 Bft)
10.03.2013 20:44 -0,3 C -1,0 C 89 % 1003,9 hPa 0,0 l/m 0 min 0 min 0,0 UV-I 0 W/m 12,9 km/h (3 Bft)
10.03.2013 20:46 -0,3 C -1,0 C 89 % 1003,9 hPa 0,0 l/m 0 min 0 min 0,0 UV-I 0 W/m 7,7 km/h (2 Bft)
10.03.2013 20:48 -0,3 C -1,0 C 89 % 1003,9 hPa 0,0 l/m 0 min 0 min 0,0 UV-I 0 W/m 10,3 km/h (2 Bft)
10.03.2013 20:50 -0,3 C -1,0 C 89 % 1003,9 hPa 0,0 l/m 0 min 0 min 0,0 UV-I 0 W/m 12,9 km/h (3 Bft)
10.03.2013 20:52 -0,3 C -1,0 C 89 % 1003,9 hPa 0,0 l/m 0 min 0 min 0,0 UV-I 0 W/m 15,4 km/h (3 Bft)
10.03.2013 20:54 -0,3 C -1,0 C 89 % 1004,0 hPa 0,0 l/m 0 min 0 min 0,0 UV-I 0 W/m 18,0 km/h (3 Bft)
10.03.2013 20:56 -0,3 C -1,0 C 89 % 1004,0 hPa 0,0 l/m 0 min 0 min 0,0 UV-I 0 W/m 12,9 km/h (3 Bft)
10.03.2013 20:58 -0,3 C -1,0 C 89 % 1004,0 hPa 0,0 l/m 0 min 0 min 0,0 UV-I 0 W/m 10,3 km/h (2 Bft)
10.03.2013 21:00 -0,3 C -1,0 C 89 % 1003,9 hPa 0,0 l/m 0 min 0 min 0,0 UV-I 0 W/m 20,6 km/h (4 Bft)
10.03.2013 21:02 -0,3 C -1,0 C 89 % 1003,9 hPa 0,0 l/m 0 min 0 min 0,0 UV-I 0 W/m 12,9 km/h (3 Bft)
10.03.2013 21:04 -0,4 C -1,6 C 89 % 1003,9 hPa 0,0 l/m 0 min 0 min 0,0 UV-I 0 W/m 10,3 km/h (2 Bft)
10.03.2013 21:06 -0,4 C -1,6 C 89 % 1003,9 hPa 0,0 l/m 0 min 0 min 0,0 UV-I 0 W/m 15,4 km/h (3 Bft)
10.03.2013 21:08 -0,4 C -1,6 C 89 % 1003,9 hPa 0,0 l/m 0 min 0 min 0,0 UV-I 0 W/m 12,9 km/h (3 Bft)
10.03.2013 21:10 -0,4 C -1,6 C 89 % 1003,9 hPa 0,0 l/m 0 min 0 min 0,0 UV-I 0 W/m 12,9 km/h (3 Bft)
10.03.2013 21:12 -0,4 C -1,6 C 89 % 1003,9 hPa 0,0 l/m 0 min 0 min 0,0 UV-I 0 W/m 18,0 km/h (3 Bft)
10.03.2013 21:14 -0,4 C -1,6 C 89 % 1003,9 hPa 0,0 l/m 0 min 0 min 0,0 UV-I 0 W/m 10,3 km/h (2 Bft)
10.03.2013 21:16 -0,4 C -1,6 C 89 % 1003,9 hPa 0,0 l/m 0 min 0 min 0,0 UV-I 0 W/m 20,6 km/h (4 Bft)
10.03.2013 21:18 -0,4 C -1,6 C 89 % 1004,0 hPa 0,0 l/m 0 min 0 min 0,0 UV-I 0 W/m 15,4 km/h (3 Bft)
10.03.2013 21:20 -0,4 C -1,6 C 89 % 1003,9 hPa 0,0 l/m 0 min 0 min 0,0 UV-I 0 W/m 12,9 km/h (3 Bft)
10.03.2013 21:22 -0,4 C -1,6 C 89 % 1004,0 hPa 0,0 l/m 0 min 0 min 0,0 UV-I 0 W/m 18,0 km/h (3 Bft)
10.03.2013 21:24 -0,4 C -1,6 C 89 % 1003,9 hPa 0,0 l/m 0 min 0 min 0,0 UV-I 0 W/m 12,9 km/h (3 Bft)
10.03.2013 21:26 -0,4 C -1,6 C 88 % 1004,0 hPa 0,0 l/m 0 min 0 min 0,0 UV-I 0 W/m 10,3 km/h (2 Bft)
10.03.2013 21:28 -0,4 C -1,6 C 88 % 1004,0 hPa 0,0 l/m 0 min 0 min 0,0 UV-I 0 W/m 18,0 km/h (3 Bft)
10.03.2013 21:30 -0,5 C -1,6 C 88 % 1004,0 hPa 0,0 l/m 0 min 0 min 0,0 UV-I 0 W/m 15,4 km/h (3 Bft)
10.03.2013 21:32 -0,5 C -1,6 C 88 % 1004,0 hPa 0,0 l/m 0 min 0 min 0,0 UV-I 0 W/m 15,4 km/h (3 Bft)
10.03.2013 21:34 -0,5 C -1,6 C 88 % 1004,1 hPa 0,0 l/m 0 min 0 min 0,0 UV-I 0 W/m 10,3 km/h (2 Bft)
10.03.2013 21:36 -0,5 C -1,6 C 88 % 1004,0 hPa 0,0 l/m 0 min 0 min 0,0 UV-I 0 W/m 10,3 km/h (2 Bft)
10.03.2013 21:38 -0,5 C -1,6 C 89 % 1004,1 hPa 0,0 l/m 0 min 0 min 0,0 UV-I 0 W/m 10,3 km/h (2 Bft)
10.03.2013 21:40 -0,5 C -1,6 C 88 % 1004,1 hPa 0,0 l/m 0 min 0 min 0,0 UV-I 0 W/m 15,4 km/h (3 Bft)
10.03.2013 21:42 -0,5 C -1,6 C 88 % 1004,1 hPa 0,0 l/m 0 min 0 min 0,0 UV-I 0 W/m 10,3 km/h (2 Bft)
10.03.2013 21:44 -0,6 C -1,6 C 88 % 1004,1 hPa 0,0 l/m 0 min 0 min 0,0 UV-I 0 W/m 10,3 km/h (2 Bft)
10.03.2013 21:46 -0,6 C -1,6 C 88 % 1004,2 hPa 0,0 l/m 0 min 0 min 0,0 UV-I 0 W/m 10,3 km/h (2 Bft)
10.03.2013 21:48 -0,6 C -1,6 C 88 % 1004,1 hPa 0,0 l/m 0 min 0 min 0,0 UV-I 0 W/m 0,0 km/h (0 Bft)
10.03.2013 21:50 -0,6 C -1,6 C 88 % 1004,1 hPa 0,0 l/m 0 min 0 min 0,0 UV-I 0 W/m 0,0 km/h (0 Bft)
10.03.2013 21:52 -0,6 C -1,6 C 88 % 1004,1 hPa 0,0 l/m 0 min 0 min 0,0 UV-I 0 W/m 0,0 km/h (0 Bft)
10.03.2013 21:54 -0,6 C -1,6 C 88 % 1004,2 hPa 0,0 l/m 0 min 0 min 0,0 UV-I 0 W/m 10,3 km/h (2 Bft)
10.03.2013 21:56 -0,6 C -1,6 C 88 % 1004,2 hPa 0,0 l/m 0 min 0 min 0,0 UV-I 0 W/m 2,6 km/h (1 Bft)
10.03.2013 21:58 -0,5 C -1,6 C 88 % 1004,2 hPa 0,0 l/m 0 min 0 min 0,0 UV-I 0 W/m 5,1 km/h (1 Bft)
10.03.2013 22:00 -0,6 C -1,6 C 88 % 1004,2 hPa 0,0 l/m 0 min 0 min 0,0 UV-I 0 W/m 0,0 km/h (0 Bft)
10.03.2013 22:02 -0,5 C -1,6 C 88 % 1004,1 hPa 0,0 l/m 0 min 0 min 0,0 UV-I 0 W/m 0,0 km/h (0 Bft)
10.03.2013 22:04 -0,5 C -1,6 C 88 % 1004,1 hPa 0,0 l/m 0 min 0 min 0,0 UV-I 0 W/m 2,6 km/h (1 Bft)
10.03.2013 22:06 -0,5 C -1,6 C 88 % 1004,2 hPa 0,0 l/m 0 min 0 min 0,0 UV-I 0 W/m 12,9 km/h (3 Bft)
10.03.2013 22:08 -0,5 C -1,6 C 88 % 1004,2 hPa 0,0 l/m 0 min 0 min 0,0 UV-I 0 W/m 10,3 km/h (2 Bft)
10.03.2013 22:10 -0,5 C -1,6 C 88 % 1004,1 hPa 0,0 l/m 0 min 0 min 0,0 UV-I 0 W/m 10,3 km/h (2 Bft)
10.03.2013 22:12 -0,5 C -1,6 C 88 % 1004,1 hPa 0,0 l/m 0 min 0 min 0,0 UV-I 0 W/m 12,9 km/h (3 Bft)
10.03.2013 22:14 -0,5 C -1,6 C 88 % 1004,1 hPa 0,0 l/m 0 min 0 min 0,0 UV-I 0 W/m 10,3 km/h (2 Bft)
10.03.2013 22:16 -0,5 C -1,6 C 89 % 1004,1 hPa 0,0 l/m 0 min 0 min 0,0 UV-I 0 W/m 18,0 km/h (3 Bft)
10.03.2013 22:18 -0,6 C -1,6 C 89 % 1004,3 hPa 0,0 l/m 0 min 0 min 0,0 UV-I 0 W/m 10,3 km/h (2 Bft)
10.03.2013 22:20 -0,6 C -1,6 C 89 % 1004,2 hPa 0,0 l/m 0 min 0 min 0,0 UV-I 0 W/m 7,7 km/h (2 Bft)
10.03.2013 22:22 -0,6 C -1,6 C 89 % 1004,4 hPa 0,0 l/m 0 min 0 min 0,0 UV-I 0 W/m 7,7 km/h (2 Bft)
10.03.2013 22:24 -0,6 C -1,6 C 89 % 1004,4 hPa 0,0 l/m 0 min 0 min 0,0 UV-I 0 W/m 12,9 km/h (3 Bft)
10.03.2013 22:26 -0,6 C -1,6 C 89 % 1004,4 hPa 0,0 l/m 0 min 0 min 0,0 UV-I 0 W/m 12,9 km/h (3 Bft)
10.03.2013 22:28 -0,6 C -1,6 C 89 % 1004,4 hPa 0,0 l/m 0 min 0 min 0,0 UV-I 0 W/m 10,3 km/h (2 Bft)
10.03.2013 22:30 -0,6 C -1,6 C 89 % 1004,4 hPa 0,0 l/m 0 min 0 min 0,0 UV-I 0 W/m 0,0 km/h (0 Bft)
10.03.2013 22:32 -0,6 C -1,6 C 89 % 1004,4 hPa 0,0 l/m 0 min 0 min 0,0 UV-I 0 W/m 7,7 km/h (2 Bft)
10.03.2013 22:34 -0,7 C -1,6 C 89 % 1004,4 hPa 0,0 l/m 0 min 0 min 0,0 UV-I 0 W/m 18,0 km/h (3 Bft)
10.03.2013 22:36 -0,7 C -1,6 C 89 % 1004,5 hPa 0,0 l/m 0 min 0 min 0,0 UV-I 0 W/m 12,9 km/h (3 Bft)
10.03.2013 22:38 -0,7 C -1,6 C 89 % 1004,4 hPa 0,0 l/m 0 min 0 min 0,0 UV-I 0 W/m 12,9 km/h (3 Bft)
10.03.2013 22:40 -0,7 C -1,6 C 89 % 1004,5 hPa 0,0 l/m 0 min 0 min 0,0 UV-I 0 W/m 23,2 km/h (4 Bft)
10.03.2013 22:42 -0,7 C -1,6 C 88 % 1004,5 hPa 0,0 l/m 0 min 0 min 0,0 UV-I 0 W/m 12,9 km/h (3 Bft)
10.03.2013 22:44 -0,8 C -1,6 C 88 % 1004,5 hPa 0,0 l/m 0 min 0 min 0,0 UV-I 0 W/m 10,3 km/h (2 Bft)
10.03.2013 22:46 -0,8 C -1,6 C 88 % 1004,6 hPa 0,0 l/m 0 min 0 min 0,0 UV-I 0 W/m 15,4 km/h (3 Bft)
10.03.2013 22:48 -0,8 C -1,6 C 88 % 1004,6 hPa 0,0 l/m 0 min 0 min 0,0 UV-I 0 W/m 12,9 km/h (3 Bft)
10.03.2013 22:50 -0,8 C -1,6 C 88 % 1004,6 hPa 0,0 l/m 0 min 0 min 0,0 UV-I 0 W/m 10,3 km/h (2 Bft)
10.03.2013 22:52 -0,8 C -1,6 C 88 % 1004,6 hPa 0,0 l/m 0 min 0 min 0,0 UV-I 0 W/m 7,7 km/h (2 Bft)
10.03.2013 22:54 -0,8 C -1,6 C 88 % 1004,5 hPa 0,0 l/m 0 min 0 min 0,0 UV-I 0 W/m 7,7 km/h (2 Bft)
10.03.2013 22:56 -0,8 C -1,6 C 88 % 1004,6 hPa 0,0 l/m 0 min 0 min 0,0 UV-I 0 W/m 7,7 km/h (2 Bft)
10.03.2013 22:58 -0,8 C -1,6 C 88 % 1004,7 hPa 0,0 l/m 0 min 0 min 0,0 UV-I 0 W/m 7,7 km/h (2 Bft)
10.03.2013 23:00 -0,8 C -1,6 C 88 % 1004,6 hPa 0,0 l/m 0 min 0 min 0,0 UV-I 0 W/m 7,7 km/h (2 Bft)
10.03.2013 23:02 -0,8 C -1,6 C 88 % 1004,5 hPa 0,0 l/m 0 min 0 min 0,0 UV-I 0 W/m 5,1 km/h (1 Bft)
10.03.2013 23:04 -0,8 C -1,6 C 88 % 1004,5 hPa 0,0 l/m 0 min 0 min 0,0 UV-I 0 W/m 10,3 km/h (2 Bft)
10.03.2013 23:06 -0,8 C -1,6 C 88 % 1004,5 hPa 0,0 l/m 0 min 0 min 0,0 UV-I 0 W/m 10,3 km/h (2 Bft)
10.03.2013 23:08 -0,8 C -1,6 C 88 % 1004,4 hPa 0,0 l/m 0 min 0 min 0,0 UV-I 0 W/m 12,9 km/h (3 Bft)
10.03.2013 23:10 -0,8 C -1,6 C 88 % 1004,5 hPa 0,0 l/m 0 min 0 min 0,0 UV-I 0 W/m 18,0 km/h (3 Bft)
10.03.2013 23:12 -0,8 C -1,6 C 87 % 1004,5 hPa 0,0 l/m 0 min 0 min 0,0 UV-I 0 W/m 7,7 km/h (2 Bft)
10.03.2013 23:14 -0,8 C -1,6 C 87 % 1004,5 hPa 0,0 l/m 0 min 0 min 0,0 UV-I 0 W/m 0,0 km/h (0 Bft)
10.03.2013 23:16 -0,8 C -1,6 C 87 % 1004,5 hPa 0,0 l/m 0 min 0 min 0,0 UV-I 0 W/m 0,0 km/h (0 Bft)
10.03.2013 23:18 -0,8 C -1,6 C 87 % 1004,5 hPa 0,0 l/m 0 min 0 min 0,0 UV-I 0 W/m 0,0 km/h (0 Bft)
10.03.2013 23:20 -0,8 C -1,6 C 87 % 1004,5 hPa 0,0 l/m 0 min 0 min 0,0 UV-I 0 W/m 0,0 km/h (0 Bft)
10.03.2013 23:22 -0,8 C -1,6 C 87 % 1004,5 hPa 0,0 l/m 0 min 0 min 0,0 UV-I 0 W/m 0,0 km/h (0 Bft)
10.03.2013 23:24 -0,8 C -1,6 C 87 % 1004,5 hPa 0,0 l/m 0 min 0 min 0,0 UV-I 0 W/m 7,7 km/h (2 Bft)
10.03.2013 23:26 -0,8 C -1,6 C 87 % 1004,5 hPa 0,0 l/m 0 min 0 min 0,0 UV-I 0 W/m 10,3 km/h (2 Bft)
10.03.2013 23:28 -0,8 C -1,6 C 87 % 1004,5 hPa 0,0 l/m 0 min 0 min 0,0 UV-I 0 W/m 7,7 km/h (2 Bft)
10.03.2013 23:30 -0,8 C -1,6 C 87 % 1004,5 hPa 0,0 l/m 0 min 0 min 0,0 UV-I 0 W/m 10,3 km/h (2 Bft)
10.03.2013 23:32 -0,8 C -1,6 C 87 % 1004,5 hPa 0,0 l/m 0 min 0 min 0,0 UV-I 0 W/m 12,9 km/h (3 Bft)
10.03.2013 23:34 -0,8 C -1,6 C 87 % 1004,5 hPa 0,0 l/m 0 min 0 min 0,0 UV-I 0 W/m 5,1 km/h (1 Bft)
10.03.2013 23:36 -0,8 C -1,6 C 87 % 1004,5 hPa 0,0 l/m 0 min 0 min 0,0 UV-I 0 W/m 7,7 km/h (2 Bft)
10.03.2013 23:38 -0,8 C -1,6 C 87 % 1004,5 hPa 0,0 l/m 0 min 0 min 0,0 UV-I 0 W/m 2,6 km/h (1 Bft)
10.03.2013 23:40 -0,9 C -1,6 C 86 % 1004,6 hPa 0,0 l/m 0 min 0 min 0,0 UV-I 0 W/m 10,3 km/h (2 Bft)
10.03.2013 23:42 -0,9 C -1,6 C 86 % 1004,6 hPa 0,0 l/m 0 min 0 min 0,0 UV-I 0 W/m 10,3 km/h (2 Bft)
10.03.2013 23:44 -0,9 C -1,6 C 86 % 1004,7 hPa 0,0 l/m 0 min 0 min 0,0 UV-I 0 W/m 10,3 km/h (2 Bft)
10.03.2013 23:46 -0,9 C -1,6 C 86 % 1004,7 hPa 0,0 l/m 0 min 0 min 0,0 UV-I 0 W/m 12,9 km/h (3 Bft)
10.03.2013 23:48 -0,9 C -1,6 C 86 % 1004,7 hPa 0,0 l/m 0 min 0 min 0,0 UV-I 0 W/m 10,3 km/h (2 Bft)
10.03.2013 23:50 -0,9 C -1,6 C 86 % 1004,7 hPa 0,0 l/m 0 min 0 min 0,0 UV-I 0 W/m 7,7 km/h (2 Bft)
10.03.2013 23:52 -0,9 C -1,6 C 86 % 1004,7 hPa 0,0 l/m 0 min 0 min 0,0 UV-I 0 W/m 12,9 km/h (3 Bft)
10.03.2013 23:54 -0,9 C -2,1 C 86 % 1004,7 hPa 0,0 l/m 0 min 0 min 0,0 UV-I 0 W/m 12,9 km/h (3 Bft)
10.03.2013 23:56 -0,9 C -2,1 C 86 % 1004,7 hPa 0,0 l/m 0 min 0 min 0,0 UV-I 0 W/m 7,7 km/h (2 Bft)
10.03.2013 23:58 -0,9 C -1,6 C 86 % 1004,7 hPa 0,0 l/m 0 min 0 min 0,0 UV-I 0 W/m 7,7 km/h (2 Bft)
_ Min-Zeit 23:38 23:54 23:40 06:30 - - - - - 00:36
Minimum _ -0,9 C -2,1 C 86 % 998,6 hPa - - - - - 0,0 km/h (0 Bft)
_ Max-Zeit 00:00 00:00 01:00 22:58 07:00 00:00 06:50 00:00 11:48 14:26
Maximum _ 5,7 C 4,6 C 98 % 1004,7 hPa 0,2 l/m 0 min 2 min 0,0 UV-I 114 W/m 30,9 km/h
NW (5 Bft)
Durchschnitt _ 1,7 C 0,8 C 94 % 1000,9 hPa #1,4 l/m #0 min. #3:50 h 0,0 UV-I 47 W/m 10,9 km/h (2 Bft)
© 2013 W. Hausmann